| time (UTC) | temp C | wind direction | speed KPH | gust KPH | rain 1hr cm | rain 24hr cm | rain mn cm | humidity % | barometer mb |
| 20260503072905 | 9 | 350 | 4.8 | 9.7 | 0.00 | 0.00 | 0.00 | 82 | 1018.8 |
| 20260503072804 | 9 | 349 | 3.2 | 9.7 | 0.00 | 0.00 | 0.00 | 82 | 1018.9 |
| 20260503072704 | 10 | 352 | 3.2 | 9.7 | 0.00 | 0.00 | 0.00 | 83 | 1018.9 |
| 20260503072404 | 10 | 338 | 3.2 | 6.4 | 0.00 | 0.00 | 0.00 | 80 | 1018.9 |
| 20260503072305 | 10 | 339 | 3.2 | 6.4 | 0.00 | 0.00 | 0.00 | 82 | 1018.9 |
| 20260503072205 | 10 | 340 | 3.2 | 6.4 | 0.00 | 0.00 | 0.00 | 75 | 1018.9 |
| 20260503072105 | 10 | 338 | 3.2 | 6.4 | 0.00 | 0.00 | 0.00 | 80 | 1018.7 |
| 20260503072006 | 10 | 338 | 3.2 | 6.4 | 0.00 | 0.00 | 0.00 | 81 | 1018.8 |
| 20260503071905 | 10 | 340 | 4.8 | 6.4 | 0.00 | 0.00 | 0.00 | 80 | 1019.0 |
| 20260503071805 | 10 | 334 | 4.8 | 6.4 | 0.00 | 0.00 | 0.00 | 80 | 1018.9 |
| 20260503071604 | 9 | 331 | 4.8 | 6.4 | 0.00 | 0.00 | 0.00 | 83 | 1018.8 |
| 20260503071404 | 10 | 333 | 3.2 | 6.4 | 0.00 | 0.00 | 0.00 | 83 | 1019.0 |
| 20260503071105 | 9 | 323 | 3.2 | 6.4 | 0.00 | 0.00 | 0.00 | 82 | 1019.2 |
| 20260503071005 | 9 | 321 | 3.2 | 6.4 | 0.00 | 0.00 | 0.00 | 79 | 1018.9 |
| 20260503070805 | 9 | 318 | 3.2 | 3.2 | 0.00 | 0.00 | 0.00 | 80 | 1018.8 |
| 20260503070705 | 9 | 323 | 3.2 | 3.2 | 0.00 | 0.00 | 0.00 | 81 | 1019.0 |
| 20260503070605 | 9 | 327 | 3.2 | 3.2 | 0.00 | 0.00 | 0.00 | 82 | 1018.9 |
| 20260503070505 | 9 | 332 | 3.2 | 3.2 | 0.00 | 0.00 | 0.00 | 83 | 1019.0 |
| 20260503060304 | 7 | 359 | 1.6 | 3.2 | 0.00 | 0.00 | 0.00 | 87 | 1018.9 |
| 20260503055105 | 6 | 292 | 0.0 | 3.2 | 0.00 | 0.00 | 0.00 | 86 | 1018.9 |
| 20260503055005 | 6 | 292 | 0.0 | 3.2 | 0.00 | 0.00 | 0.00 | 86 | 1019.0 |
| 20260503054904 | 6 | 292 | 0.0 | 3.2 | 0.00 | 0.00 | 0.00 | 86 | 1019.0 |
| 20260503054805 | 6 | 292 | 0.0 | 3.2 | 0.00 | 0.00 | 0.00 | 87 | 1019.0 |
| 20260503054705 | 6 | 292 | 0.0 | 3.2 | 0.00 | 0.00 | 0.00 | 87 | 1019.1 |
| 20260503054505 | 6 | 292 | 0.0 | 3.2 | 0.00 | 0.00 | 0.00 | 87 | 1019.0 |
| 20260503054405 | 6 | 0 | 0.0 | 0.0 | 0.00 | 0.00 | 0.00 | 88 | 1019.0 |
| 20260503054304 | 6 | 0 | 0.0 | 0.0 | 0.00 | 0.00 | 0.00 | 89 | 1019.1 |
| 20260503054204 | 6 | 0 | 0.0 | 0.0 | 0.00 | 0.00 | 0.00 | 89 | 1019.0 |
| 20260503054105 | 6 | 0 | 0.0 | 0.0 | 0.00 | 0.00 | 0.00 | 89 | 1019.0 |
| 20260503054005 | 6 | 0 | 0.0 | 0.0 | 0.00 | 0.00 | 0.00 | 89 | 1019.1 |
| 20260503053905 | 6 | 0 | 0.0 | 0.0 | 0.00 | 0.00 | 0.00 | 89 | 1018.9 |
| 20260503053805 | 6 | 0 | 0.0 | 0.0 | 0.00 | 0.00 | 0.00 | 89 | 1018.9 |
| 20260503053705 | 6 | 0 | 0.0 | 0.0 | 0.00 | 0.00 | 0.00 | 89 | 1019.0 |
| 20260503053505 | 6 | 0 | 0.0 | 0.0 | 0.00 | 0.00 | 0.00 | 88 | 1019.1 |
| 20260503053404 | 6 | 0 | 0.0 | 0.0 | 0.00 | 0.00 | 0.00 | 88 | 1018.9 |
| 20260503053304 | 5 | 0 | 0.0 | 0.0 | 0.00 | 0.00 | 0.00 | 88 | 1018.8 |
| 20260503053205 | 5 | 0 | 0.0 | 0.0 | 0.00 | 0.00 | 0.00 | 89 | 1019.0 |
| 20260503052905 | 5 | 0 | 0.0 | 0.0 | 0.00 | 0.00 | 0.00 | 91 | 1018.9 |
| 20260503052805 | 5 | 0 | 0.0 | 0.0 | 0.00 | 0.00 | 0.00 | 90 | 1019.1 |
| 20260503052705 | 5 | 0 | 0.0 | 0.0 | 0.00 | 0.00 | 0.00 | 91 | 1019.0 |
| 20260503052605 | 5 | 0 | 0.0 | 0.0 | 0.00 | 0.00 | 0.00 | 91 | 1019.0 |
| 20260503052505 | 5 | 0 | 0.0 | 0.0 | 0.00 | 0.00 | 0.00 | 91 | 1018.9 |
| 20260503052305 | 5 | 0 | 0.0 | 0.0 | 0.00 | 0.00 | 0.00 | 92 | 1018.8 |
| 20260503052204 | 5 | 158 | 0.0 | 3.2 | 0.00 | 0.00 | 0.00 | 92 | 1018.9 |
| 20260503052005 | 5 | 158 | 0.0 | 3.2 | 0.00 | 0.00 | 0.00 | 91 | 1019.0 |
| 20260503051904 | 5 | 158 | 1.6 | 3.2 | 0.00 | 0.00 | 0.00 | 92 | 1019.1 |
| 20260503051805 | 5 | 163 | 1.6 | 3.2 | 0.00 | 0.00 | 0.00 | 92 | 1018.9 |
| 20260503051605 | 5 | 168 | 1.6 | 3.2 | 0.00 | 0.00 | 0.00 | 92 | 1019.0 |
| 20260503051506 | 5 | 167 | 1.6 | 3.2 | 0.00 | 0.00 | 0.00 | 92 | 1019.0 |
| 20260503051305 | 4 | 165 | 1.6 | 3.2 | 0.00 | 0.00 | 0.00 | 92 | 1018.9 |
| 20260503051205 | 5 | 165 | 1.6 | 3.2 | 0.00 | 0.00 | 0.00 | 92 | 1019.0 |
| 20260503051104 | 5 | 166 | 1.6 | 3.2 | 0.00 | 0.00 | 0.00 | 92 | 1019.0 |
| 20260503051005 | 5 | 167 | 1.6 | 3.2 | 0.00 | 0.00 | 0.00 | 93 | 1019.1 |
| 20260503050904 | 5 | 167 | 1.6 | 3.2 | 0.00 | 0.00 | 0.00 | 93 | 1019.1 |
| 20260503050805 | 5 | 164 | 1.6 | 3.2 | 0.00 | 0.00 | 0.00 | 92 | 1019.0 |
| 20260503050705 | 4 | 162 | 1.6 | 3.2 | 0.00 | 0.00 | 0.00 | 92 | 1019.1 |
| 20260503050605 | 4 | 159 | 1.6 | 3.2 | 0.00 | 0.00 | 0.00 | 92 | 1019.0 |
| 20260503050505 | 4 | 159 | 3.2 | 3.2 | 0.00 | 0.00 | 0.00 | 93 | 1019.0 |
| 20260503050405 | 4 | 161 | 3.2 | 3.2 | 0.00 | 0.00 | 0.00 | 92 | 1019.1 |
| 20260503050304 | 4 | 158 | 3.2 | 3.2 | 0.00 | 0.00 | 0.00 | 93 | 1019.0 |
| 20260503050204 | 4 | 155 | 3.2 | 3.2 | 0.00 | 0.00 | 0.00 | 93 | 1019.0 |
| 20260503050105 | 4 | 154 | 3.2 | 3.2 | 0.00 | 0.00 | 0.00 | 93 | 1018.9 |
| 20260503050005 | 4 | 151 | 3.2 | 3.2 | 0.00 | 0.00 | 0.00 | 93 | 1018.9 |
| 20260503045805 | 4 | 151 | 3.2 | 3.2 | 0.00 | 0.00 | 0.00 | 92 | 1019.2 |
| 20260503045705 | 4 | 151 | 3.2 | 3.2 | 0.00 | 0.00 | 0.00 | 92 | 1019.1 |
| 20260503045604 | 4 | 151 | 3.2 | 3.2 | 0.00 | 0.00 | 0.00 | 92 | 1019.2 |
| 20260503045305 | 3 | 155 | 3.2 | 6.4 | 0.00 | 0.00 | 0.00 | 95 | 1019.1 |
| 20260503045204 | 3 | 160 | 3.2 | 6.4 | 0.00 | 0.00 | 0.00 | 96 | 1019.0 |
| 20260503045005 | 3 | 166 | 3.2 | 6.4 | 0.00 | 0.00 | 0.00 | 95 | 1019.2 |
| 20260503044904 | 3 | 168 | 3.2 | 6.4 | 0.00 | 0.00 | 0.00 | 95 | 1019.3 |
| 20260503044805 | 3 | 170 | 3.2 | 6.4 | 0.00 | 0.00 | 0.00 | 94 | 1019.1 |
| 20260503044705 | 3 | 172 | 3.2 | 6.4 | 0.00 | 0.00 | 0.00 | 95 | 1019.1 |
| 20260503044605 | 3 | 174 | 3.2 | 6.4 | 0.00 | 0.00 | 0.00 | 96 | 1019.2 |
| 20260503044505 | 3 | 177 | 3.2 | 6.4 | 0.00 | 0.00 | 0.00 | 96 | 1019.1 |
| 20260503044405 | 3 | 181 | 3.2 | 3.2 | 0.00 | 0.00 | 0.00 | 96 | 1019.2 |
| 20260503044304 | 3 | 181 | 3.2 | 3.2 | 0.00 | 0.00 | 0.00 | 96 | 1019.1 |
| 20260503044204 | 3 | 178 | 3.2 | 3.2 | 0.00 | 0.00 | 0.00 | 95 | 1018.9 |
| 20260503044104 | 3 | 176 | 3.2 | 3.2 | 0.00 | 0.00 | 0.00 | 96 | 1019.3 |
| 20260503044005 | 3 | 174 | 3.2 | 3.2 | 0.00 | 0.00 | 0.00 | 95 | 1019.1 |
| 20260503043805 | 3 | 170 | 3.2 | 3.2 | 0.00 | 0.00 | 0.00 | 95 | 1019.1 |
| 20260503043705 | 3 | 169 | 3.2 | 3.2 | 0.00 | 0.00 | 0.00 | 95 | 1019.1 |
| 20260503043604 | 2 | 168 | 3.2 | 3.2 | 0.00 | 0.00 | 0.00 | 95 | 1018.9 |
| 20260503043505 | 2 | 167 | 3.2 | 3.2 | 0.00 | 0.00 | 0.00 | 95 | 1019.1 |
| 20260503043404 | 2 | 167 | 3.2 | 3.2 | 0.00 | 0.00 | 0.00 | 95 | 1019.2 |
| 20260503043204 | 2 | 168 | 3.2 | 3.2 | 0.00 | 0.00 | 0.00 | 95 | 1019.1 |
| 20260503043104 | 2 | 170 | 3.2 | 3.2 | 0.00 | 0.00 | 0.00 | 95 | 1019.0 |
| 20260503043005 | 2 | 173 | 3.2 | 6.4 | 0.00 | 0.00 | 0.00 | 95 | 1019.1 |
| 20260503042905 | 2 | 173 | 4.8 | 6.4 | 0.00 | 0.00 | 0.00 | 95 | 1019.2 |
| 20260503042805 | 3 | 174 | 4.8 | 6.4 | 0.00 | 0.00 | 0.00 | 95 | 1019.1 |
| 20260503042705 | 3 | 173 | 4.8 | 6.4 | 0.00 | 0.00 | 0.00 | 95 | 1019.1 |
| 20260503042604 | 2 | 175 | 4.8 | 6.4 | 0.00 | 0.00 | 0.00 | 95 | 1019.1 |
| 20260503042505 | 2 | 173 | 4.8 | 6.4 | 0.00 | 0.00 | 0.00 | 96 | 1019.1 |
| 20260503042404 | 2 | 173 | 4.8 | 6.4 | 0.00 | 0.00 | 0.00 | 96 | 1019.2 |
| 20260503042305 | 2 | 171 | 6.4 | 6.4 | 0.00 | 0.00 | 0.00 | 96 | 1019.0 |
| 20260503042105 | 2 | 171 | 6.4 | 6.4 | 0.00 | 0.00 | 0.00 | 96 | 1019.1 |
| 20260503042006 | 2 | 170 | 4.8 | 6.4 | 0.00 | 0.00 | 0.00 | 96 | 1019.1 |
| 20260503041506 | 2 | 168 | 4.8 | 6.4 | 0.00 | 0.00 | 0.00 | 95 | 1019.1 |
| 20260503041405 | 2 | 168 | 3.2 | 6.4 | 0.00 | 0.00 | 0.00 | 95 | 1019.2 |
| 20260503041305 | 2 | 169 | 3.2 | 6.4 | 0.00 | 0.00 | 0.00 | 95 | 1019.1 |
| 20260503041204 | 2 | 165 | 3.2 | 3.2 | 0.00 | 0.00 | 0.00 | 95 | 1019.2 |
| 20260503041104 | 2 | 164 | 3.2 | 3.2 | 0.00 | 0.00 | 0.00 | 95 | 1019.1 |
| 20260503040904 | 2 | 161 | 3.2 | 3.2 | 0.00 | 0.00 | 0.00 | 95 | 1019.0 |
| 20260503040805 | 2 | 161 | 3.2 | 3.2 | 0.00 | 0.00 | 0.00 | 95 | 1019.1 |
| 20260503040705 | 2 | 161 | 3.2 | 3.2 | 0.00 | 0.00 | 0.00 | 95 | 1019.1 |
| 20260503040605 | 2 | 162 | 3.2 | 3.2 | 0.00 | 0.00 | 0.00 | 95 | 1019.1 |
| 20260503040405 | 2 | 162 | 3.2 | 3.2 | 0.00 | 0.00 | 0.00 | 95 | 1019.2 |
| 20260503040304 | 2 | 163 | 3.2 | 3.2 | 0.00 | 0.00 | 0.00 | 95 | 1019.1 |
| 20260503040205 | 2 | 167 | 3.2 | 3.2 | 0.00 | 0.00 | 0.00 | 95 | 1019.1 |
| 20260503040105 | 2 | 169 | 3.2 | 3.2 | 0.00 | 0.00 | 0.00 | 95 | 1019.2 |
| 20260503040006 | 2 | 171 | 3.2 | 3.2 | 0.00 | 0.00 | 0.00 | 95 | 1019.2 |
| 20260503035905 | 2 | 172 | 3.2 | 3.2 | 0.00 | 0.00 | 0.00 | 95 | 1019.2 |
| 20260503035804 | 2 | 173 | 3.2 | 3.2 | 0.00 | 0.00 | 0.00 | 95 | 1019.1 |
| 20260503035604 | 2 | 173 | 3.2 | 3.2 | 0.00 | 0.00 | 0.00 | 95 | 1019.1 |
| 20260503035505 | 2 | 173 | 3.2 | 3.2 | 0.00 | 0.00 | 0.00 | 95 | 1019.3 |
| 20260503035404 | 2 | 171 | 3.2 | 3.2 | 0.00 | 0.00 | 0.00 | 96 | 1019.1 |
| 20260503035305 | 2 | 170 | 3.2 | 3.2 | 0.00 | 0.00 | 0.00 | 96 | 1019.2 |
| 20260503035205 | 2 | 169 | 3.2 | 3.2 | 0.00 | 0.00 | 0.00 | 95 | 1019.1 |
| 20260503035005 | 2 | 164 | 3.2 | 3.2 | 0.00 | 0.00 | 0.00 | 95 | 1019.3 |
| 20260503034805 | 2 | 164 | 3.2 | 3.2 | 0.00 | 0.00 | 0.00 | 95 | 1019.3 |
| 20260503034704 | 2 | 164 | 3.2 | 3.2 | 0.00 | 0.00 | 0.00 | 95 | 1019.2 |
| 20260503034604 | 2 | 165 | 3.2 | 3.2 | 0.00 | 0.00 | 0.00 | 95 | 1019.3 |
| 20260503034505 | 2 | 166 | 3.2 | 3.2 | 0.00 | 0.00 | 0.00 | 95 | 1019.1 |
| 20260503034404 | 2 | 169 | 3.2 | 3.2 | 0.00 | 0.00 | 0.00 | 95 | 1019.2 |
| 20260503034305 | 2 | 171 | 3.2 | 3.2 | 0.00 | 0.00 | 0.00 | 95 | 1019.2 |
| 20260503034205 | 2 | 172 | 3.2 | 3.2 | 0.00 | 0.00 | 0.00 | 95 | 1019.1 |
| 20260503034005 | 2 | 171 | 3.2 | 3.2 | 0.00 | 0.00 | 0.00 | 95 | 1019.1 |
| 20260503033905 | 2 | 170 | 3.2 | 3.2 | 0.00 | 0.00 | 0.00 | 95 | 1019.2 |
| 20260503033604 | 2 | 171 | 3.2 | 3.2 | 0.00 | 0.00 | 0.00 | 95 | 1019.0 |
| 20260503033505 | 2 | 171 | 3.2 | 3.2 | 0.00 | 0.00 | 0.00 | 95 | 1019.1 |
| 20260503033404 | 2 | 168 | 3.2 | 3.2 | 0.00 | 0.00 | 0.00 | 95 | 1019.2 |
| 20260503033305 | 2 | 168 | 3.2 | 3.2 | 0.00 | 0.00 | 0.00 | 96 | 1019.3 |
| 20260503033205 | 2 | 166 | 3.2 | 3.2 | 0.00 | 0.00 | 0.00 | 95 | 1019.2 |
| 20260503033104 | 2 | 165 | 3.2 | 3.2 | 0.00 | 0.00 | 0.00 | 96 | 1019.4 |
| 20260503033005 | 2 | 165 | 3.2 | 3.2 | 0.00 | 0.00 | 0.00 | 95 | 1019.4 |
| 20260503032905 | 2 | 165 | 3.2 | 3.2 | 0.00 | 0.00 | 0.00 | 95 | 1019.2 |
| 20260503032804 | 2 | 163 | 3.2 | 3.2 | 0.00 | 0.00 | 0.00 | 95 | 1019.4 |
| 20260503032704 | 2 | 162 | 3.2 | 3.2 | 0.00 | 0.00 | 0.00 | 95 | 1019.3 |
| 20260503032604 | 2 | 161 | 3.2 | 3.2 | 0.00 | 0.00 | 0.00 | 95 | 1019.3 |
| 20260503032505 | 2 | 163 | 3.2 | 3.2 | 0.00 | 0.00 | 0.00 | 95 | 1019.3 |
| 20260503032404 | 2 | 164 | 3.2 | 3.2 | 0.00 | 0.00 | 0.00 | 95 | 1019.2 |
| 20260503032305 | 2 | 162 | 3.2 | 3.2 | 0.00 | 0.00 | 0.00 | 95 | 1019.3 |
| 20260503032205 | 2 | 165 | 3.2 | 3.2 | 0.00 | 0.00 | 0.00 | 95 | 1019.4 |
| 20260503032105 | 2 | 165 | 3.2 | 3.2 | 0.00 | 0.00 | 0.00 | 95 | 1019.2 |
| 20260503032005 | 2 | 165 | 3.2 | 3.2 | 0.00 | 0.00 | 0.00 | 94 | 1019.4 |
| 20260503031905 | 2 | 165 | 3.2 | 3.2 | 0.00 | 0.00 | 0.00 | 95 | 1019.3 |
| 20260503031804 | 2 | 165 | 3.2 | 3.2 | 0.00 | 0.00 | 0.00 | 95 | 1019.3 |
| 20260503031604 | 2 | 168 | 3.2 | 3.2 | 0.00 | 0.00 | 0.00 | 95 | 1019.3 |
| 20260503031505 | 2 | 167 | 3.2 | 3.2 | 0.00 | 0.00 | 0.00 | 95 | 1019.2 |
| 20260503031404 | 2 | 166 | 3.2 | 3.2 | 0.00 | 0.00 | 0.00 | 95 | 1019.2 |
| 20260503031305 | 2 | 167 | 3.2 | 3.2 | 0.00 | 0.00 | 0.00 | 95 | 1019.2 |
| 20260503031205 | 2 | 164 | 3.2 | 3.2 | 0.00 | 0.00 | 0.00 | 95 | 1019.4 |
| 20260503031105 | 2 | 163 | 3.2 | 3.2 | 0.00 | 0.00 | 0.00 | 95 | 1019.3 |
| 20260503030905 | 2 | 164 | 3.2 | 3.2 | 0.00 | 0.00 | 0.00 | 95 | 1019.5 |
| 20260503030604 | 2 | 161 | 3.2 | 3.2 | 0.00 | 0.00 | 0.00 | 95 | 1019.4 |
| 20260503030505 | 2 | 159 | 3.2 | 3.2 | 0.00 | 0.00 | 0.00 | 95 | 1019.5 |
| 20260503030405 | 2 | 159 | 3.2 | 3.2 | 0.00 | 0.00 | 0.00 | 95 | 1019.5 |
| 20260503030204 | 2 | 159 | 3.2 | 3.2 | 0.00 | 0.00 | 0.00 | 95 | 1019.4 |
| 20260503030105 | 2 | 159 | 3.2 | 3.2 | 0.00 | 0.00 | 0.00 | 95 | 1019.3 |
| 20260503025904 | 2 | 158 | 3.2 | 3.2 | 0.00 | 0.00 | 0.00 | 95 | 1019.4 |
| 20260503025705 | 2 | 161 | 3.2 | 3.2 | 0.00 | 0.00 | 0.00 | 95 | 1019.4 |
| 20260503025605 | 2 | 163 | 3.2 | 3.2 | 0.00 | 0.00 | 0.00 | 95 | 1019.5 |
| 20260503025405 | 2 | 166 | 3.2 | 3.2 | 0.00 | 0.00 | 0.00 | 95 | 1019.3 |
| 20260503025305 | 2 | 168 | 3.2 | 3.2 | 0.00 | 0.00 | 0.00 | 95 | 1019.5 |
| 20260503025204 | 2 | 170 | 3.2 | 3.2 | 0.00 | 0.00 | 0.00 | 95 | 1019.6 |
| 20260503025104 | 2 | 170 | 3.2 | 3.2 | 0.00 | 0.00 | 0.00 | 95 | 1019.3 |
| 20260503025005 | 2 | 173 | 3.2 | 3.2 | 0.00 | 0.00 | 0.00 | 95 | 1019.6 |
| 20260503024904 | 2 | 174 | 3.2 | 3.2 | 0.00 | 0.00 | 0.00 | 95 | 1019.5 |
| 20260503024805 | 2 | 175 | 3.2 | 3.2 | 0.00 | 0.00 | 0.00 | 95 | 1019.5 |
| 20260503024705 | 2 | 176 | 3.2 | 3.2 | 0.00 | 0.00 | 0.00 | 95 | 1019.5 |
| 20260503024605 | 2 | 174 | 3.2 | 3.2 | 0.00 | 0.00 | 0.00 | 95 | 1019.4 |
| 20260503024505 | 2 | 172 | 3.2 | 3.2 | 0.00 | 0.00 | 0.00 | 95 | 1019.4 |
| 20260503024404 | 2 | 172 | 3.2 | 3.2 | 0.00 | 0.00 | 0.00 | 95 | 1019.3 |
| 20260503024304 | 2 | 170 | 3.2 | 3.2 | 0.00 | 0.00 | 0.00 | 95 | 1019.5 |
| 20260503024204 | 2 | 168 | 3.2 | 3.2 | 0.00 | 0.00 | 0.00 | 95 | 1019.5 |
| 20260503024104 | 2 | 168 | 3.2 | 3.2 | 0.00 | 0.00 | 0.00 | 95 | 1019.6 |
| 20260503023904 | 2 | 165 | 3.2 | 3.2 | 0.00 | 0.00 | 0.00 | 95 | 1019.6 |
| 20260503023804 | 2 | 162 | 3.2 | 3.2 | 0.00 | 0.00 | 0.00 | 95 | 1019.6 |
| 20260503023705 | 2 | 162 | 3.2 | 3.2 | 0.00 | 0.00 | 0.00 | 94 | 1019.6 |
| 20260503023605 | 2 | 162 | 3.2 | 3.2 | 0.00 | 0.00 | 0.00 | 94 | 1019.5 |
| 20260503023505 | 2 | 164 | 3.2 | 3.2 | 0.00 | 0.00 | 0.00 | 94 | 1019.5 |
| 20260503023405 | 2 | 164 | 3.2 | 3.2 | 0.00 | 0.00 | 0.00 | 95 | 1019.5 |
| 20260503023304 | 2 | 164 | 3.2 | 3.2 | 0.00 | 0.00 | 0.00 | 95 | 1019.6 |
| 20260503023204 | 2 | 166 | 3.2 | 3.2 | 0.00 | 0.00 | 0.00 | 95 | 1019.7 |
| 20260503023105 | 2 | 167 | 3.2 | 3.2 | 0.00 | 0.00 | 0.00 | 94 | 1019.5 |
| 20260503023005 | 2 | 167 | 3.2 | 3.2 | 0.00 | 0.00 | 0.00 | 95 | 1019.6 |
| 20260503022805 | 2 | 167 | 3.2 | 3.2 | 0.00 | 0.00 | 0.00 | 94 | 1019.8 |
| 20260503022705 | 2 | 165 | 3.2 | 3.2 | 0.00 | 0.00 | 0.00 | 95 | 1019.6 |
| 20260503022604 | 2 | 165 | 3.2 | 3.2 | 0.00 | 0.00 | 0.00 | 95 | 1019.6 |
| 20260503022405 | 3 | 163 | 3.2 | 3.2 | 0.00 | 0.00 | 0.00 | 95 | 1019.7 |
| 20260503022305 | 2 | 165 | 3.2 | 3.2 | 0.00 | 0.00 | 0.00 | 94 | 1019.5 |
| 20260503022204 | 3 | 163 | 3.2 | 3.2 | 0.00 | 0.00 | 0.00 | 94 | 1019.5 |
| 20260503022104 | 2 | 161 | 3.2 | 3.2 | 0.00 | 0.00 | 0.00 | 94 | 1019.7 |
| 20260503022005 | 2 | 161 | 3.2 | 3.2 | 0.00 | 0.00 | 0.00 | 94 | 1019.6 |
| 20260503021905 | 2 | 160 | 3.2 | 3.2 | 0.00 | 0.00 | 0.00 | 94 | 1019.6 |
| 20260503021805 | 2 | 158 | 3.2 | 3.2 | 0.00 | 0.00 | 0.00 | 94 | 1019.6 |
| 20260503021704 | 2 | 157 | 3.2 | 3.2 | 0.00 | 0.00 | 0.00 | 94 | 1019.4 |
| 20260503021604 | 2 | 157 | 3.2 | 3.2 | 0.00 | 0.00 | 0.00 | 94 | 1019.5 |
| 20260503021505 | 3 | 160 | 3.2 | 3.2 | 0.00 | 0.00 | 0.00 | 94 | 1019.6 |
| 20260503021404 | 3 | 162 | 3.2 | 3.2 | 0.00 | 0.00 | 0.00 | 94 | 1019.5 |
| 20260503021304 | 3 | 160 | 3.2 | 3.2 | 0.00 | 0.00 | 0.00 | 94 | 1019.6 |
| 20260503021205 | 3 | 160 | 3.2 | 3.2 | 0.00 | 0.00 | 0.00 | 94 | 1019.7 |
| 20260503021105 | 3 | 162 | 3.2 | 3.2 | 0.00 | 0.00 | 0.00 | 94 | 1019.6 |
| 20260503021005 | 3 | 164 | 3.2 | 3.2 | 0.00 | 0.00 | 0.00 | 94 | 1019.7 |
| 20260503020905 | 3 | 164 | 3.2 | 3.2 | 0.00 | 0.00 | 0.00 | 94 | 1019.6 |
| 20260503020804 | 3 | 165 | 3.2 | 3.2 | 0.00 | 0.00 | 0.00 | 94 | 1019.6 |
| 20260503020704 | 2 | 168 | 3.2 | 3.2 | 0.00 | 0.00 | 0.00 | 94 | 1019.6 |
| 20260503020505 | 2 | 169 | 3.2 | 3.2 | 0.00 | 0.00 | 0.00 | 94 | 1019.6 |
| 20260503020404 | 2 | 167 | 3.2 | 3.2 | 0.00 | 0.00 | 0.00 | 94 | 1019.7 |
| 20260503020105 | 2 | 166 | 3.2 | 3.2 | 0.00 | 0.00 | 0.00 | 94 | 1019.7 |
| 20260503020006 | 2 | 164 | 3.2 | 3.2 | 0.00 | 0.00 | 0.00 | 94 | 1019.7 |
| 20260503015905 | 3 | 164 | 3.2 | 3.2 | 0.00 | 0.00 | 0.00 | 94 | 1019.7 |
| 20260503015804 | 3 | 162 | 3.2 | 3.2 | 0.00 | 0.00 | 0.00 | 94 | 1019.7 |
| 20260503015704 | 3 | 160 | 3.2 | 3.2 | 0.00 | 0.00 | 0.00 | 94 | 1019.7 |
| 20260503015505 | 3 | 159 | 3.2 | 3.2 | 0.00 | 0.00 | 0.00 | 94 | 1019.5 |
| 20260503015305 | 3 | 159 | 3.2 | 3.2 | 0.00 | 0.00 | 0.00 | 93 | 1019.9 |
| 20260503015204 | 3 | 157 | 3.2 | 3.2 | 0.00 | 0.00 | 0.00 | 93 | 1019.8 |
| 20260503015105 | 3 | 157 | 3.2 | 3.2 | 0.00 | 0.00 | 0.00 | 93 | 1019.8 |
| 20260503015005 | 3 | 156 | 3.2 | 3.2 | 0.00 | 0.00 | 0.00 | 94 | 1019.7 |
| 20260503014805 | 3 | 156 | 3.2 | 3.2 | 0.00 | 0.00 | 0.00 | 94 | 1019.8 |
| 20260503014705 | 3 | 156 | 3.2 | 3.2 | 0.00 | 0.00 | 0.00 | 94 | 1019.7 |
| 20260503014505 | 3 | 154 | 3.2 | 3.2 | 0.00 | 0.00 | 0.00 | 94 | 1019.9 |
| 20260503014405 | 3 | 155 | 3.2 | 3.2 | 0.00 | 0.00 | 0.00 | 94 | 1019.6 |
| 20260503014204 | 3 | 156 | 1.6 | 3.2 | 0.00 | 0.00 | 0.00 | 95 | 1019.7 |
| 20260503014104 | 3 | 156 | 1.6 | 3.2 | 0.00 | 0.00 | 0.00 | 94 | 1019.9 |
| 20260503014005 | 3 | 158 | 1.6 | 3.2 | 0.00 | 0.00 | 0.00 | 94 | 1019.8 |
| 20260503013904 | 3 | 158 | 1.6 | 3.2 | 0.00 | 0.00 | 0.00 | 94 | 1019.7 |
| 20260503013805 | 3 | 158 | 1.6 | 3.2 | 0.00 | 0.00 | 0.00 | 94 | 1019.5 |
| 20260503013705 | 3 | 158 | 1.6 | 3.2 | 0.00 | 0.00 | 0.00 | 94 | 1019.6 |
| 20260503013605 | 3 | 156 | 1.6 | 3.2 | 0.00 | 0.00 | 0.00 | 94 | 1019.7 |
| 20260503013505 | 3 | 154 | 1.6 | 3.2 | 0.00 | 0.00 | 0.00 | 94 | 1019.7 |
| 20260503013404 | 3 | 154 | 1.6 | 3.2 | 0.00 | 0.00 | 0.00 | 94 | 1019.9 |
| 20260503013304 | 3 | 154 | 3.2 | 3.2 | 0.00 | 0.00 | 0.00 | 94 | 1019.7 |
| 20260503013105 | 3 | 152 | 3.2 | 3.2 | 0.00 | 0.00 | 0.00 | 94 | 1019.8 |
| 20260503013005 | 3 | 152 | 3.2 | 3.2 | 0.00 | 0.00 | 0.00 | 95 | 1019.8 |
| 20260503012905 | 3 | 152 | 3.2 | 3.2 | 0.00 | 0.00 | 0.00 | 95 | 1019.9 |
| 20260503012805 | 3 | 152 | 3.2 | 3.2 | 0.00 | 0.00 | 0.00 | 95 | 1019.8 |
| 20260503012604 | 2 | 154 | 3.2 | 3.2 | 0.00 | 0.00 | 0.00 | 94 | 1019.9 |
| 20260503012505 | 2 | 155 | 3.2 | 3.2 | 0.00 | 0.00 | 0.00 | 95 | 1020.0 |
| 20260503012405 | 2 | 154 | 3.2 | 3.2 | 0.00 | 0.00 | 0.00 | 95 | 1019.8 |
| 20260503012305 | 3 | 154 | 3.2 | 3.2 | 0.00 | 0.00 | 0.00 | 94 | 1019.9 |
| 20260503012204 | 3 | 154 | 3.2 | 3.2 | 0.00 | 0.00 | 0.00 | 94 | 1019.9 |
| 20260503012104 | 3 | 155 | 3.2 | 3.2 | 0.00 | 0.00 | 0.00 | 94 | 1020.0 |
| 20260503011904 | 3 | 155 | 3.2 | 3.2 | 0.00 | 0.00 | 0.00 | 93 | 1019.9 |
| 20260503011805 | 3 | 157 | 3.2 | 3.2 | 0.00 | 0.00 | 0.00 | 93 | 1019.7 |
| 20260503011705 | 3 | 159 | 3.2 | 3.2 | 0.00 | 0.00 | 0.00 | 94 | 1019.8 |
| 20260503011604 | 3 | 162 | 3.2 | 3.2 | 0.00 | 0.00 | 0.00 | 94 | 1019.9 |
| 20260503011405 | 3 | 164 | 3.2 | 3.2 | 0.00 | 0.00 | 0.00 | 94 | 1019.9 |
| 20260503011305 | 3 | 164 | 3.2 | 3.2 | 0.00 | 0.00 | 0.00 | 94 | 1019.8 |
| 20260503011204 | 3 | 164 | 3.2 | 3.2 | 0.00 | 0.00 | 0.00 | 94 | 1019.9 |
| 20260503011104 | 3 | 164 | 3.2 | 3.2 | 0.00 | 0.00 | 0.00 | 93 | 1020.0 |
| 20260503011005 | 3 | 164 | 3.2 | 3.2 | 0.00 | 0.00 | 0.00 | 93 | 1020.0 |
| 20260503010904 | 3 | 164 | 3.2 | 3.2 | 0.00 | 0.00 | 0.00 | 93 | 1020.0 |
| 20260503010805 | 3 | 165 | 3.2 | 3.2 | 0.00 | 0.00 | 0.00 | 93 | 1020.1 |
| 20260503010705 | 3 | 162 | 3.2 | 3.2 | 0.00 | 0.00 | 0.00 | 93 | 1020.0 |
| 20260503010605 | 3 | 160 | 3.2 | 3.2 | 0.00 | 0.00 | 0.00 | 94 | 1020.0 |
| 20260503010505 | 3 | 161 | 3.2 | 3.2 | 0.00 | 0.00 | 0.00 | 93 | 1019.8 |
| 20260503010405 | 3 | 162 | 3.2 | 3.2 | 0.00 | 0.00 | 0.00 | 93 | 1019.9 |
| 20260503010204 | 3 | 164 | 3.2 | 3.2 | 0.00 | 0.00 | 0.00 | 94 | 1020.0 |
| 20260503010104 | 3 | 165 | 3.2 | 3.2 | 0.00 | 0.00 | 0.00 | 93 | 1020.0 |
| 20260503010005 | 3 | 165 | 3.2 | 3.2 | 0.00 | 0.00 | 0.00 | 94 | 1019.9 |
| 20260503005904 | 3 | 167 | 3.2 | 3.2 | 0.00 | 0.00 | 0.00 | 94 | 1020.1 |
| 20260503005804 | 3 | 166 | 3.2 | 3.2 | 0.00 | 0.00 | 0.00 | 94 | 1019.9 |
| 20260503005705 | 3 | 165 | 3.2 | 3.2 | 0.00 | 0.00 | 0.00 | 94 | 1020.1 |
| 20260503005605 | 3 | 164 | 3.2 | 3.2 | 0.00 | 0.00 | 0.00 | 93 | 1020.0 |
| 20260503005505 | 3 | 165 | 3.2 | 3.2 | 0.00 | 0.00 | 0.00 | 93 | 1019.8 |
| 20260503005405 | 3 | 163 | 3.2 | 3.2 | 0.00 | 0.00 | 0.00 | 93 | 1020.1 |
| 20260503005205 | 3 | 162 | 3.2 | 3.2 | 0.00 | 0.00 | 0.00 | 92 | 1020.0 |
| 20260503004905 | 3 | 157 | 3.2 | 3.2 | 0.00 | 0.00 | 0.00 | 92 | 1020.0 |
| 20260503004804 | 3 | 157 | 3.2 | 3.2 | 0.00 | 0.00 | 0.00 | 92 | 1020.1 |
| 20260503004704 | 3 | 159 | 3.2 | 3.2 | 0.00 | 0.00 | 0.00 | 92 | 1019.8 |
| 20260503004604 | 3 | 160 | 3.2 | 3.2 | 0.00 | 0.00 | 0.00 | 92 | 1019.9 |
| 20260503004505 | 3 | 159 | 3.2 | 3.2 | 0.00 | 0.00 | 0.00 | 93 | 1020.0 |
| 20260503004404 | 3 | 159 | 3.2 | 3.2 | 0.00 | 0.00 | 0.00 | 93 | 1020.1 |
| 20260503004305 | 3 | 159 | 3.2 | 3.2 | 0.00 | 0.00 | 0.00 | 93 | 1020.1 |
| 20260503004105 | 3 | 159 | 3.2 | 3.2 | 0.00 | 0.00 | 0.00 | 93 | 1020.2 |
| 20260503003705 | 3 | 164 | 3.2 | 3.2 | 0.00 | 0.00 | 0.00 | 93 | 1020.3 |
| 20260503003604 | 3 | 163 | 3.2 | 3.2 | 0.00 | 0.00 | 0.00 | 93 | 1020.3 |
| 20260503003405 | 3 | 162 | 3.2 | 3.2 | 0.00 | 0.00 | 0.00 | 93 | 1020.1 |
| 20260503003304 | 3 | 163 | 3.2 | 3.2 | 0.00 | 0.00 | 0.00 | 92 | 1020.0 |
| 20260503003204 | 3 | 166 | 3.2 | 3.2 | 0.00 | 0.00 | 0.00 | 93 | 1020.2 |
| 20260503003104 | 3 | 168 | 3.2 | 3.2 | 0.00 | 0.00 | 0.00 | 93 | 1020.1 |
| 20260503003005 | 3 | 168 | 3.2 | 3.2 | 0.00 | 0.00 | 0.00 | 93 | 1020.2 |
| 20260503002904 | 3 | 169 | 3.2 | 3.2 | 0.00 | 0.00 | 0.00 | 93 | 1020.3 |
| 20260503002805 | 3 | 169 | 3.2 | 3.2 | 0.00 | 0.00 | 0.00 | 93 | 1020.2 |
| 20260503002704 | 3 | 170 | 3.2 | 3.2 | 0.00 | 0.00 | 0.00 | 93 | 1020.2 |
| 20260503002604 | 3 | 170 | 3.2 | 3.2 | 0.00 | 0.00 | 0.00 | 93 | 1020.2 |
| 20260503002505 | 3 | 170 | 3.2 | 3.2 | 0.00 | 0.00 | 0.00 | 93 | 1020.5 |
| 20260503002305 | 3 | 169 | 3.2 | 3.2 | 0.00 | 0.00 | 0.00 | 93 | 1020.2 |
| 20260503002205 | 3 | 167 | 3.2 | 3.2 | 0.00 | 0.00 | 0.00 | 92 | 1020.2 |
| 20260503002104 | 3 | 166 | 3.2 | 3.2 | 0.00 | 0.00 | 0.00 | 93 | 1020.2 |
| 20260503002005 | 3 | 164 | 3.2 | 3.2 | 0.00 | 0.00 | 0.00 | 92 | 1020.2 |
| 20260503001905 | 3 | 161 | 3.2 | 3.2 | 0.00 | 0.00 | 0.00 | 92 | 1020.3 |
| 20260503001804 | 3 | 162 | 3.2 | 3.2 | 0.00 | 0.00 | 0.00 | 92 | 1020.3 |
| 20260503001505 | 3 | 162 | 3.2 | 3.2 | 0.00 | 0.00 | 0.00 | 92 | 1020.2 |
| 20260503001404 | 3 | 162 | 3.2 | 3.2 | 0.00 | 0.00 | 0.00 | 92 | 1020.3 |
| 20260503001304 | 3 | 162 | 3.2 | 3.2 | 0.00 | 0.00 | 0.00 | 92 | 1020.5 |
| 20260503001204 | 3 | 161 | 3.2 | 3.2 | 0.00 | 0.00 | 0.00 | 92 | 1020.3 |
| 20260503001105 | 3 | 161 | 3.2 | 3.2 | 0.00 | 0.00 | 0.00 | 92 | 1020.4 |
| 20260503001005 | 3 | 161 | 3.2 | 3.2 | 0.00 | 0.00 | 0.00 | 92 | 1020.5 |
| 20260503000905 | 3 | 161 | 3.2 | 3.2 | 0.00 | 0.00 | 0.00 | 91 | 1020.5 |
| 20260503000805 | 3 | 159 | 3.2 | 3.2 | 0.00 | 0.00 | 0.00 | 92 | 1020.2 |
| 20260503000704 | 3 | 159 | 3.2 | 3.2 | 0.00 | 0.00 | 0.00 | 92 | 1020.5 |
| 20260503000605 | 3 | 159 | 3.2 | 3.2 | 0.00 | 0.00 | 0.00 | 91 | 1020.5 |
| 20260503000505 | 3 | 159 | 3.2 | 3.2 | 0.00 | 0.00 | 0.00 | 91 | 1020.2 |
| 20260503000404 | 3 | 161 | 3.2 | 3.2 | 0.00 | 0.00 | 0.00 | 91 | 1020.3 |
| 20260503000305 | 3 | 163 | 3.2 | 3.2 | 0.00 | 0.00 | 0.00 | 91 | 1020.3 |
| 20260503000204 | 3 | 167 | 3.2 | 3.2 | 0.00 | 0.00 | 0.00 | 91 | 1020.7 |
| 20260503000005 | 3 | 167 | 3.2 | 6.4 | 0.00 | 0.00 | 0.00 | 91 | 1020.4 |
| 20260502235904 | 3 | 167 | 3.2 | 6.4 | 0.00 | 0.00 | 0.00 | 91 | 1020.2 |
| 20260502235704 | 3 | 167 | 3.2 | 6.4 | 0.00 | 0.00 | 0.00 | 90 | 1020.5 |
| 20260502235604 | 4 | 167 | 3.2 | 6.4 | 0.00 | 0.00 | 0.00 | 90 | 1020.4 |
| 20260502235505 | 4 | 167 | 3.2 | 6.4 | 0.00 | 0.00 | 0.00 | 90 | 1020.4 |
| 20260502235305 | 4 | 161 | 3.2 | 6.4 | 0.00 | 0.00 | 0.00 | 90 | 1020.4 |
| 20260502235204 | 4 | 159 | 3.2 | 6.4 | 0.00 | 0.00 | 0.00 | 90 | 1020.5 |
| 20260502235105 | 4 | 159 | 3.2 | 6.4 | 0.00 | 0.00 | 0.00 | 90 | 1020.4 |
| 20260502235005 | 3 | 157 | 3.2 | 6.4 | 0.00 | 0.00 | 0.00 | 90 | 1020.5 |
| 20260502234905 | 3 | 156 | 3.2 | 6.4 | 0.00 | 0.00 | 0.00 | 91 | 1020.6 |
| 20260502234604 | 3 | 151 | 3.2 | 3.2 | 0.00 | 0.00 | 0.00 | 91 | 1020.3 |
| 20260502234505 | 3 | 152 | 3.2 | 6.4 | 0.00 | 0.00 | 0.00 | 90 | 1020.4 |
| 20260502234404 | 3 | 152 | 3.2 | 6.4 | 0.00 | 0.00 | 0.00 | 91 | 1020.6 |
| 20260502234305 | 3 | 156 | 3.2 | 6.4 | 0.00 | 0.00 | 0.00 | 91 | 1020.6 |
| 20260502234205 | 3 | 155 | 3.2 | 6.4 | 0.00 | 0.00 | 0.00 | 91 | 1020.5 |
| 20260502234104 | 4 | 154 | 4.8 | 6.4 | 0.00 | 0.00 | 0.00 | 92 | 1020.6 |
| 20260502234005 | 4 | 154 | 4.8 | 6.4 | 0.00 | 0.00 | 0.00 | 91 | 1020.7 |
| 20260502233904 | 4 | 155 | 4.8 | 6.4 | 0.00 | 0.00 | 0.00 | 90 | 1020.7 |
| 20260502233804 | 4 | 156 | 4.8 | 6.4 | 0.00 | 0.00 | 0.00 | 89 | 1020.5 |
| 20260502233705 | 4 | 157 | 4.8 | 6.4 | 0.00 | 0.00 | 0.00 | 89 | 1020.5 |
| 20260502233604 | 4 | 157 | 4.8 | 6.4 | 0.00 | 0.00 | 0.00 | 89 | 1020.6 |
| 20260502233505 | 4 | 157 | 4.8 | 6.4 | 0.00 | 0.00 | 0.00 | 89 | 1020.6 |
| 20260502233404 | 4 | 157 | 4.8 | 6.4 | 0.00 | 0.00 | 0.00 | 89 | 1020.7 |
| 20260502233304 | 4 | 157 | 4.8 | 6.4 | 0.00 | 0.00 | 0.00 | 89 | 1020.5 |
| 20260502233204 | 4 | 158 | 3.2 | 6.4 | 0.00 | 0.00 | 0.00 | 89 | 1020.6 |
| 20260502233104 | 4 | 159 | 3.2 | 6.4 | 0.00 | 0.00 | 0.00 | 89 | 1020.6 |
| 20260502233005 | 4 | 160 | 3.2 | 3.2 | 0.00 | 0.00 | 0.00 | 89 | 1020.7 |
| 20260502232705 | 4 | 160 | 3.2 | 3.2 | 0.00 | 0.00 | 0.00 | 90 | 1020.6 |
| 20260502232605 | 4 | 159 | 3.2 | 3.2 | 0.00 | 0.00 | 0.00 | 90 | 1020.8 |
| 20260502232505 | 4 | 158 | 3.2 | 3.2 | 0.00 | 0.00 | 0.00 | 90 | 1020.7 |
| 20260502232405 | 4 | 158 | 3.2 | 3.2 | 0.00 | 0.00 | 0.00 | 90 | 1020.7 |
| 20260502232305 | 4 | 160 | 3.2 | 6.4 | 0.00 | 0.00 | 0.00 | 90 | 1020.7 |
| 20260502232104 | 4 | 160 | 3.2 | 6.4 | 0.00 | 0.00 | 0.00 | 89 | 1020.6 |
| 20260502231904 | 5 | 159 | 3.2 | 6.4 | 0.00 | 0.00 | 0.00 | 88 | 1020.7 |
| 20260502231804 | 5 | 159 | 3.2 | 6.4 | 0.00 | 0.00 | 0.00 | 88 | 1020.9 |
| 20260502231705 | 5 | 159 | 3.2 | 6.4 | 0.00 | 0.00 | 0.00 | 88 | 1020.6 |
| 20260502231604 | 5 | 160 | 3.2 | 6.4 | 0.00 | 0.00 | 0.00 | 88 | 1020.6 |
| 20260502231405 | 5 | 160 | 3.2 | 6.4 | 0.00 | 0.00 | 0.00 | 88 | 1020.7 |
| 20260502231304 | 5 | 156 | 3.2 | 6.4 | 0.00 | 0.00 | 0.00 | 88 | 1020.7 |
| 20260502231204 | 5 | 156 | 3.2 | 6.4 | 0.00 | 0.00 | 0.00 | 88 | 1020.5 |
| 20260502231005 | 4 | 154 | 3.2 | 3.2 | 0.00 | 0.00 | 0.00 | 88 | 1020.7 |
| 20260502230804 | 4 | 155 | 3.2 | 3.2 | 0.00 | 0.00 | 0.00 | 88 | 1020.9 |
| 20260502230704 | 4 | 155 | 3.2 | 3.2 | 0.00 | 0.00 | 0.00 | 89 | 1020.9 |
| 20260502230605 | 4 | 154 | 3.2 | 3.2 | 0.00 | 0.00 | 0.00 | 88 | 1020.7 |
| 20260502230405 | 4 | 152 | 3.2 | 3.2 | 0.00 | 0.00 | 0.00 | 89 | 1020.9 |
| 20260502230305 | 4 | 153 | 3.2 | 3.2 | 0.00 | 0.00 | 0.00 | 89 | 1021.0 |
| 20260502230005 | 4 | 150 | 3.2 | 3.2 | 0.00 | 0.00 | 0.00 | 90 | 1020.7 |
| 20260502225904 | 4 | 149 | 3.2 | 3.2 | 0.00 | 0.00 | 0.00 | 90 | 1020.8 |
| 20260502225804 | 4 | 148 | 3.2 | 3.2 | 0.00 | 0.00 | 0.00 | 89 | 1021.1 |
| 20260502225704 | 4 | 147 | 3.2 | 3.2 | 0.00 | 0.00 | 0.00 | 89 | 1021.1 |
| 20260502225605 | 4 | 146 | 3.2 | 3.2 | 0.00 | 0.00 | 0.00 | 89 | 1020.8 |
| 20260502225505 | 4 | 147 | 3.2 | 3.2 | 0.00 | 0.00 | 0.00 | 89 | 1020.8 |
| 20260502225405 | 4 | 149 | 3.2 | 3.2 | 0.00 | 0.00 | 0.00 | 89 | 1020.8 |
| 20260502225305 | 4 | 149 | 3.2 | 3.2 | 0.00 | 0.00 | 0.00 | 89 | 1020.8 |
| 20260502225204 | 4 | 149 | 3.2 | 3.2 | 0.00 | 0.00 | 0.00 | 89 | 1020.9 |
| 20260502225005 | 5 | 153 | 3.2 | 3.2 | 0.00 | 0.00 | 0.00 | 89 | 1020.9 |
| 20260502224904 | 5 | 151 | 3.2 | 3.2 | 0.00 | 0.00 | 0.00 | 89 | 1020.9 |
| 20260502224804 | 5 | 151 | 3.2 | 3.2 | 0.00 | 0.00 | 0.00 | 89 | 1020.7 |
| 20260502224705 | 5 | 153 | 3.2 | 3.2 | 0.00 | 0.00 | 0.00 | 89 | 1020.8 |
| 20260502224605 | 5 | 154 | 3.2 | 3.2 | 0.00 | 0.00 | 0.00 | 89 | 1020.8 |
| 20260502224506 | 5 | 152 | 3.2 | 3.2 | 0.00 | 0.00 | 0.00 | 88 | 1020.8 |
| 20260502224404 | 5 | 151 | 3.2 | 3.2 | 0.00 | 0.00 | 0.00 | 88 | 1020.7 |
| 20260502224304 | 5 | 151 | 3.2 | 3.2 | 0.00 | 0.00 | 0.00 | 89 | 1020.8 |
| 20260502224104 | 5 | 148 | 3.2 | 6.4 | 0.00 | 0.00 | 0.00 | 89 | 1020.8 |
| 20260502224005 | 5 | 149 | 3.2 | 6.4 | 0.00 | 0.00 | 0.00 | 88 | 1020.7 |
| 20260502223904 | 5 | 148 | 4.8 | 6.4 | 0.00 | 0.00 | 0.00 | 88 | 1020.9 |
| 20260502223705 | 5 | 149 | 4.8 | 6.4 | 0.00 | 0.00 | 0.00 | 89 | 1020.9 |
| 20260502223604 | 5 | 151 | 4.8 | 6.4 | 0.00 | 0.00 | 0.00 | 88 | 1020.7 |
| 20260502223505 | 5 | 150 | 4.8 | 6.4 | 0.00 | 0.00 | 0.00 | 88 | 1020.8 |
| 20260502223405 | 5 | 151 | 4.8 | 6.4 | 0.00 | 0.00 | 0.00 | 88 | 1021.0 |
| 20260502223204 | 5 | 152 | 4.8 | 6.4 | 0.00 | 0.00 | 0.00 | 88 | 1021.0 |
| 20260502223104 | 5 | 153 | 3.2 | 6.4 | 0.00 | 0.00 | 0.00 | 88 | 1020.9 |
| 20260502223005 | 5 | 151 | 3.2 | 6.4 | 0.00 | 0.00 | 0.00 | 88 | 1020.8 |
| 20260502222804 | 5 | 155 | 3.2 | 3.2 | 0.00 | 0.00 | 0.00 | 88 | 1020.7 |
| 20260502222704 | 5 | 152 | 3.2 | 3.2 | 0.00 | 0.00 | 0.00 | 88 | 1021.0 |
| 20260502222505 | 5 | 149 | 3.2 | 3.2 | 0.00 | 0.00 | 0.00 | 88 | 1021.0 |
| 20260502222405 | 5 | 147 | 3.2 | 3.2 | 0.00 | 0.00 | 0.00 | 88 | 1021.0 |
| 20260502222305 | 5 | 145 | 3.2 | 3.2 | 0.00 | 0.00 | 0.00 | 89 | 1021.0 |
| 20260502222104 | 5 | 140 | 3.2 | 6.4 | 0.00 | 0.00 | 0.00 | 88 | 1021.0 |
| 20260502222005 | 5 | 140 | 3.2 | 6.4 | 0.00 | 0.00 | 0.00 | 88 | 1021.0 |
| 20260502221904 | 5 | 138 | 3.2 | 6.4 | 0.00 | 0.00 | 0.00 | 88 | 1021.0 |
| 20260502221804 | 5 | 138 | 3.2 | 6.4 | 0.00 | 0.00 | 0.00 | 88 | 1020.9 |
| 20260502221604 | 5 | 141 | 3.2 | 6.4 | 0.00 | 0.00 | 0.00 | 88 | 1020.8 |
| 20260502221404 | 5 | 143 | 3.2 | 6.4 | 0.00 | 0.00 | 0.00 | 87 | 1020.8 |
| 20260502221304 | 5 | 142 | 3.2 | 6.4 | 0.00 | 0.00 | 0.00 | 87 | 1020.9 |
| 20260502221005 | 5 | 150 | 4.8 | 6.4 | 0.00 | 0.00 | 0.00 | 88 | 1021.1 |
| 20260502220905 | 5 | 153 | 4.8 | 6.4 | 0.00 | 0.00 | 0.00 | 88 | 1020.9 |
| 20260502220804 | 5 | 151 | 4.8 | 6.4 | 0.00 | 0.00 | 0.00 | 88 | 1021.0 |
| 20260502220604 | 5 | 148 | 6.4 | 6.4 | 0.00 | 0.00 | 0.00 | 88 | 1021.0 |
| 20260502220505 | 5 | 145 | 6.4 | 6.4 | 0.00 | 0.00 | 0.00 | 88 | 1020.9 |
| 20260502220405 | 5 | 145 | 6.4 | 6.4 | 0.00 | 0.00 | 0.00 | 88 | 1020.8 |
| 20260502220305 | 5 | 147 | 6.4 | 6.4 | 0.00 | 0.00 | 0.00 | 87 | 1020.8 |
| 20260502220204 | 5 | 146 | 6.4 | 6.4 | 0.00 | 0.00 | 0.00 | 87 | 1020.9 |
| 20260502220104 | 5 | 148 | 6.4 | 6.4 | 0.00 | 0.00 | 0.00 | 87 | 1020.8 |
| 20260502220007 | 5 | 148 | 6.4 | 6.4 | 0.00 | 0.00 | 0.00 | 87 | 1021.0 |
| 20260502215904 | 5 | 147 | 6.4 | 6.4 | 0.00 | 0.00 | 0.00 | 86 | 1020.9 |
| 20260502215804 | 5 | 147 | 6.4 | 6.4 | 0.00 | 0.00 | 0.00 | 86 | 1020.9 |
| 20260502215704 | 5 | 147 | 6.4 | 6.4 | 0.00 | 0.00 | 0.00 | 87 | 1021.0 |
| 20260502215605 | 5 | 146 | 4.8 | 6.4 | 0.00 | 0.00 | 0.00 | 87 | 1021.0 |
| 20260502215505 | 5 | 149 | 4.8 | 6.4 | 0.00 | 0.00 | 0.00 | 87 | 1021.0 |
| 20260502215405 | 5 | 150 | 4.8 | 6.4 | 0.00 | 0.00 | 0.00 | 88 | 1021.1 |
| 20260502215305 | 5 | 145 | 4.8 | 6.4 | 0.00 | 0.00 | 0.00 | 86 | 1020.8 |
| 20260502215204 | 5 | 142 | 4.8 | 6.4 | 0.00 | 0.00 | 0.00 | 86 | 1020.8 |
| 20260502215105 | 5 | 139 | 4.8 | 6.4 | 0.00 | 0.00 | 0.00 | 86 | 1020.9 |
| 20260502215005 | 5 | 139 | 4.8 | 6.4 | 0.00 | 0.00 | 0.00 | 87 | 1021.2 |
| 20260502214905 | 5 | 138 | 4.8 | 6.4 | 0.00 | 0.00 | 0.00 | 87 | 1020.8 |
| 20260502214804 | 5 | 141 | 4.8 | 9.7 | 0.00 | 0.00 | 0.00 | 87 | 1020.8 |
| 20260502214704 | 5 | 142 | 4.8 | 9.7 | 0.00 | 0.00 | 0.00 | 87 | 1020.8 |
| 20260502214605 | 6 | 143 | 4.8 | 9.7 | 0.00 | 0.00 | 0.00 | 87 | 1021.0 |
| 20260502214404 | 6 | 142 | 4.8 | 9.7 | 0.00 | 0.00 | 0.00 | 85 | 1021.1 |
| 20260502214304 | 5 | 143 | 4.8 | 9.7 | 0.00 | 0.00 | 0.00 | 85 | 1020.9 |
| 20260502214204 | 5 | 143 | 4.8 | 9.7 | 0.00 | 0.00 | 0.00 | 85 | 1021.0 |
| 20260502214105 | 5 | 143 | 4.8 | 9.7 | 0.00 | 0.00 | 0.00 | 85 | 1020.9 |
| 20260502213905 | 5 | 142 | 4.8 | 9.7 | 0.00 | 0.00 | 0.00 | 86 | 1020.8 |
| 20260502213604 | 6 | 134 | 6.4 | 9.7 | 0.00 | 0.00 | 0.00 | 86 | 1020.9 |
| 20260502213505 | 6 | 136 | 6.4 | 9.7 | 0.00 | 0.00 | 0.00 | 86 | 1020.8 |
| 20260502213404 | 6 | 137 | 6.4 | 9.7 | 0.00 | 0.00 | 0.00 | 86 | 1020.7 |
| 20260502213104 | 6 | 137 | 6.4 | 9.7 | 0.00 | 0.00 | 0.00 | 84 | 1020.9 |
| 20260502213005 | 6 | 137 | 6.4 | 9.7 | 0.00 | 0.00 | 0.00 | 84 | 1021.0 |
| 20260502212904 | 6 | 134 | 6.4 | 9.7 | 0.00 | 0.00 | 0.00 | 84 | 1021.0 |
| 20260502212705 | 6 | 127 | 6.4 | 6.4 | 0.00 | 0.00 | 0.00 | 84 | 1021.0 |
| 20260502212605 | 6 | 128 | 6.4 | 6.4 | 0.00 | 0.00 | 0.00 | 84 | 1020.9 |
| 20260502212506 | 6 | 127 | 6.4 | 6.4 | 0.00 | 0.00 | 0.00 | 84 | 1021.0 |
| 20260502212404 | 6 | 128 | 6.4 | 9.7 | 0.00 | 0.00 | 0.00 | 84 | 1020.9 |
| 20260502212305 | 6 | 127 | 6.4 | 9.7 | 0.00 | 0.00 | 0.00 | 84 | 1020.7 |
| 20260502212105 | 6 | 123 | 6.4 | 9.7 | 0.00 | 0.00 | 0.00 | 84 | 1020.9 |
| 20260502212005 | 6 | 123 | 8.0 | 9.7 | 0.00 | 0.00 | 0.00 | 84 | 1021.0 |
| 20260502211904 | 6 | 122 | 8.0 | 9.7 | 0.00 | 0.00 | 0.00 | 83 | 1021.1 |
| 20260502211804 | 6 | 124 | 8.0 | 9.7 | 0.00 | 0.00 | 0.00 | 83 | 1021.1 |
| 20260502211705 | 6 | 122 | 8.0 | 9.7 | 0.00 | 0.00 | 0.00 | 83 | 1020.9 |
| 20260502211604 | 6 | 122 | 8.0 | 9.7 | 0.00 | 0.00 | 0.00 | 83 | 1020.9 |
| 20260502211505 | 6 | 120 | 8.0 | 9.7 | 0.00 | 0.00 | 0.00 | 83 | 1021.0 |
| 20260502211404 | 6 | 117 | 8.0 | 9.7 | 0.00 | 0.00 | 0.00 | 84 | 1021.0 |
| 20260502211204 | 6 | 121 | 8.0 | 11.3 | 0.00 | 0.00 | 0.00 | 83 | 1020.9 |
| 20260502211105 | 6 | 122 | 8.0 | 11.3 | 0.00 | 0.00 | 0.00 | 83 | 1021.1 |
| 20260502211006 | 6 | 123 | 8.0 | 11.3 | 0.00 | 0.00 | 0.00 | 83 | 1021.2 |
| 20260502210905 | 6 | 122 | 8.0 | 11.3 | 0.00 | 0.00 | 0.00 | 83 | 1021.2 |
| 20260502210804 | 6 | 123 | 8.0 | 11.3 | 0.00 | 0.00 | 0.00 | 83 | 1021.1 |
| 20260502210704 | 6 | 128 | 8.0 | 11.3 | 0.00 | 0.00 | 0.00 | 84 | 1021.0 |
| 20260502210605 | 6 | 130 | 8.0 | 11.3 | 0.00 | 0.00 | 0.00 | 83 | 1021.1 |
| 20260502210505 | 6 | 131 | 8.0 | 11.3 | 0.00 | 0.00 | 0.00 | 83 | 1021.1 |
| 20260502210404 | 6 | 130 | 8.0 | 11.3 | 0.00 | 0.00 | 0.00 | 83 | 1021.0 |
| 20260502210205 | 6 | 122 | 8.0 | 11.3 | 0.00 | 0.00 | 0.00 | 83 | 1021.1 |
| 20260502210104 | 6 | 120 | 8.0 | 11.3 | 0.00 | 0.00 | 0.00 | 83 | 1021.4 |
| 20260502210005 | 6 | 119 | 8.0 | 11.3 | 0.00 | 0.00 | 0.00 | 84 | 1021.1 |
| 20260502205904 | 6 | 121 | 8.0 | 11.3 | 0.00 | 0.00 | 0.00 | 83 | 1021.2 |
| 20260502205804 | 6 | 122 | 8.0 | 11.3 | 0.00 | 0.00 | 0.00 | 83 | 1021.1 |
| 20260502205705 | 6 | 120 | 8.0 | 11.3 | 0.00 | 0.00 | 0.00 | 83 | 1021.1 |
| 20260502205604 | 6 | 118 | 6.4 | 11.3 | 0.00 | 0.00 | 0.00 | 83 | 1021.2 |
| 20260502205505 | 6 | 115 | 6.4 | 11.3 | 0.00 | 0.00 | 0.00 | 83 | 1021.1 |
| 20260502205404 | 6 | 116 | 6.4 | 9.7 | 0.00 | 0.00 | 0.00 | 83 | 1021.0 |
| 20260502205305 | 6 | 121 | 6.4 | 6.4 | 0.00 | 0.00 | 0.00 | 83 | 1021.1 |
| 20260502205205 | 6 | 123 | 6.4 | 6.4 | 0.00 | 0.00 | 0.00 | 83 | 1021.1 |
| 20260502205104 | 6 | 126 | 6.4 | 6.4 | 0.00 | 0.00 | 0.00 | 83 | 1021.2 |
| 20260502205005 | 6 | 128 | 6.4 | 6.4 | 0.00 | 0.00 | 0.00 | 83 | 1021.2 |
| 20260502204804 | 6 | 126 | 6.4 | 6.4 | 0.00 | 0.00 | 0.00 | 83 | 1021.1 |
| 20260502204704 | 6 | 122 | 6.4 | 6.4 | 0.00 | 0.00 | 0.00 | 83 | 1021.1 |
| 20260502204605 | 6 | 121 | 6.4 | 6.4 | 0.00 | 0.00 | 0.00 | 83 | 1021.1 |
| 20260502204505 | 6 | 125 | 4.8 | 6.4 | 0.00 | 0.00 | 0.00 | 83 | 1021.1 |
| 20260502204404 | 6 | 124 | 4.8 | 6.4 | 0.00 | 0.00 | 0.00 | 82 | 1021.2 |
| 20260502204304 | 6 | 124 | 4.8 | 6.4 | 0.00 | 0.00 | 0.00 | 82 | 1021.1 |
| 20260502204204 | 6 | 123 | 4.8 | 6.4 | 0.00 | 0.00 | 0.00 | 82 | 1020.9 |
| 20260502203905 | 6 | 119 | 4.8 | 6.4 | 0.00 | 0.00 | 0.00 | 82 | 1021.1 |
| 20260502203804 | 6 | 119 | 4.8 | 6.4 | 0.00 | 0.00 | 0.00 | 82 | 1021.2 |
| 20260502203704 | 6 | 119 | 4.8 | 6.4 | 0.00 | 0.00 | 0.00 | 83 | 1021.0 |
| 20260502203506 | 6 | 118 | 4.8 | 6.4 | 0.00 | 0.00 | 0.00 | 82 | 1021.1 |
| 20260502203405 | 6 | 116 | 4.8 | 6.4 | 0.00 | 0.00 | 0.00 | 82 | 1021.2 |
| 20260502203304 | 6 | 115 | 4.8 | 6.4 | 0.00 | 0.00 | 0.00 | 82 | 1021.4 |
| 20260502203204 | 6 | 117 | 4.8 | 6.4 | 0.00 | 0.00 | 0.00 | 82 | 1021.1 |
| 20260502203105 | 6 | 119 | 4.8 | 6.4 | 0.00 | 0.00 | 0.00 | 82 | 1020.9 |
| 20260502203005 | 6 | 117 | 4.8 | 6.4 | 0.00 | 0.00 | 0.00 | 82 | 1021.2 |
| 20260502202904 | 6 | 119 | 3.2 | 6.4 | 0.00 | 0.00 | 0.00 | 82 | 1021.1 |
| 20260502202804 | 6 | 120 | 3.2 | 6.4 | 0.00 | 0.00 | 0.00 | 83 | 1021.1 |
| 20260502202705 | 6 | 122 | 3.2 | 6.4 | 0.00 | 0.00 | 0.00 | 82 | 1021.0 |
| 20260502202605 | 7 | 114 | 3.2 | 6.4 | 0.00 | 0.00 | 0.00 | 82 | 1021.1 |
| 20260502202505 | 6 | 118 | 3.2 | 6.4 | 0.00 | 0.00 | 0.00 | 82 | 1021.1 |
| 20260502202204 | 7 | 123 | 3.2 | 6.4 | 0.00 | 0.00 | 0.00 | 82 | 1021.2 |
| 20260502202104 | 7 | 123 | 3.2 | 6.4 | 0.00 | 0.00 | 0.00 | 81 | 1021.5 |
| 20260502201904 | 7 | 126 | 3.2 | 6.4 | 0.00 | 0.00 | 0.00 | 81 | 1021.3 |
| 20260502201804 | 6 | 125 | 3.2 | 6.4 | 0.00 | 0.00 | 0.00 | 81 | 1021.0 |
| 20260502201705 | 6 | 126 | 3.2 | 6.4 | 0.00 | 0.00 | 0.00 | 81 | 1021.2 |
| 20260502201405 | 6 | 136 | 3.2 | 6.4 | 0.00 | 0.00 | 0.00 | 82 | 1021.2 |
| 20260502201304 | 6 | 136 | 3.2 | 6.4 | 0.00 | 0.00 | 0.00 | 81 | 1021.2 |
| 20260502201204 | 6 | 139 | 3.2 | 6.4 | 0.00 | 0.00 | 0.00 | 81 | 1021.3 |
| 20260502201104 | 7 | 129 | 3.2 | 6.4 | 0.00 | 0.00 | 0.00 | 82 | 1021.4 |
| 20260502201005 | 7 | 130 | 3.2 | 6.4 | 0.00 | 0.00 | 0.00 | 81 | 1021.3 |
| 20260502200904 | 7 | 131 | 3.2 | 6.4 | 0.00 | 0.00 | 0.00 | 81 | 1021.3 |
| 20260502200804 | 7 | 135 | 3.2 | 6.4 | 0.00 | 0.00 | 0.00 | 81 | 1021.1 |
| 20260502200705 | 7 | 131 | 3.2 | 6.4 | 0.00 | 0.00 | 0.00 | 82 | 1021.1 |
| 20260502200604 | 7 | 133 | 3.2 | 6.4 | 0.00 | 0.00 | 0.00 | 82 | 1021.1 |
| 20260502200505 | 7 | 119 | 4.8 | 9.7 | 0.00 | 0.00 | 0.00 | 81 | 1021.3 |
| 20260502200204 | 7 | 103 | 4.8 | 9.7 | 0.00 | 0.00 | 0.00 | 81 | 1021.1 |
| 20260502200104 | 7 | 113 | 4.8 | 9.7 | 0.00 | 0.00 | 0.00 | 81 | 1021.0 |
| 20260502195904 | 7 | 104 | 4.8 | 9.7 | 0.00 | 0.00 | 0.00 | 80 | 1021.2 |
| 20260502195804 | 7 | 97 | 4.8 | 9.7 | 0.00 | 0.00 | 0.00 | 79 | 1021.1 |
| 20260502195705 | 7 | 98 | 4.8 | 9.7 | 0.00 | 0.00 | 0.00 | 80 | 1021.2 |
| 20260502195604 | 7 | 98 | 4.8 | 9.7 | 0.00 | 0.00 | 0.00 | 79 | 1021.2 |
| 20260502195505 | 7 | 105 | 4.8 | 9.7 | 0.00 | 0.00 | 0.00 | 79 | 1021.3 |
| 20260502195404 | 7 | 112 | 4.8 | 9.7 | 0.00 | 0.00 | 0.00 | 79 | 1021.2 |
| 20260502195305 | 7 | 112 | 4.8 | 9.7 | 0.00 | 0.00 | 0.00 | 79 | 1021.2 |
| 20260502195204 | 7 | 114 | 4.8 | 9.7 | 0.00 | 0.00 | 0.00 | 80 | 1021.3 |
| 20260502195104 | 7 | 114 | 4.8 | 9.7 | 0.00 | 0.00 | 0.00 | 79 | 1021.3 |
| 20260502195005 | 7 | 119 | 4.8 | 9.7 | 0.00 | 0.00 | 0.00 | 80 | 1021.1 |
| 20260502194904 | 7 | 120 | 4.8 | 9.7 | 0.00 | 0.00 | 0.00 | 81 | 1021.0 |
| 20260502194805 | 7 | 126 | 4.8 | 9.7 | 0.00 | 0.00 | 0.00 | 80 | 1021.1 |
| 20260502194604 | 7 | 129 | 4.8 | 9.7 | 0.00 | 0.00 | 0.00 | 79 | 1021.3 |
| 20260502194505 | 7 | 130 | 4.8 | 9.7 | 0.00 | 0.00 | 0.00 | 79 | 1021.2 |
| 20260502194404 | 7 | 130 | 4.8 | 9.7 | 0.00 | 0.00 | 0.00 | 80 | 1021.1 |
| 20260502194304 | 7 | 129 | 6.4 | 9.7 | 0.00 | 0.00 | 0.00 | 80 | 1021.1 |
| 20260502194205 | 7 | 128 | 4.8 | 9.7 | 0.00 | 0.00 | 0.00 | 79 | 1021.0 |
| 20260502193905 | 7 | 129 | 4.8 | 9.7 | 0.00 | 0.00 | 0.00 | 80 | 1021.2 |
| 20260502193804 | 7 | 126 | 4.8 | 6.4 | 0.00 | 0.00 | 0.00 | 81 | 1021.2 |
| 20260502193704 | 7 | 123 | 4.8 | 6.4 | 0.00 | 0.00 | 0.00 | 80 | 1021.1 |
| 20260502193604 | 7 | 125 | 4.8 | 6.4 | 0.00 | 0.00 | 0.00 | 80 | 1021.1 |
| 20260502193505 | 7 | 124 | 4.8 | 6.4 | 0.00 | 0.00 | 0.00 | 79 | 1021.1 |
| 20260502193104 | 7 | 127 | 3.2 | 6.4 | 0.00 | 0.00 | 0.00 | 78 | 1021.2 |
| 20260502193005 | 7 | 129 | 3.2 | 6.4 | 0.00 | 0.00 | 0.00 | 78 | 1021.1 |
| 20260502192904 | 7 | 125 | 3.2 | 6.4 | 0.00 | 0.00 | 0.00 | 79 | 1021.1 |
| 20260502192804 | 7 | 126 | 3.2 | 6.4 | 0.00 | 0.00 | 0.00 | 80 | 1021.0 |
| 20260502192605 | 7 | 123 | 3.2 | 6.4 | 0.00 | 0.00 | 0.00 | 80 | 1021.1 |
| 20260502192505 | 7 | 121 | 3.2 | 6.4 | 0.00 | 0.00 | 0.00 | 79 | 1021.1 |
| 20260502192405 | 7 | 119 | 3.2 | 6.4 | 0.00 | 0.00 | 0.00 | 78 | 1021.1 |
| 20260502192305 | 7 | 121 | 4.8 | 6.4 | 0.00 | 0.00 | 0.00 | 78 | 1021.2 |
| 20260502192204 | 7 | 119 | 4.8 | 6.4 | 0.00 | 0.00 | 0.00 | 79 | 1021.1 |
| 20260502192104 | 7 | 113 | 4.8 | 6.4 | 0.00 | 0.00 | 0.00 | 78 | 1021.1 |
| 20260502192005 | 7 | 110 | 4.8 | 6.4 | 0.00 | 0.00 | 0.00 | 79 | 1020.9 |
| 20260502191804 | 7 | 111 | 4.8 | 6.4 | 0.00 | 0.00 | 0.00 | 79 | 1021.1 |
| 20260502191704 | 7 | 112 | 4.8 | 9.7 | 0.00 | 0.00 | 0.00 | 79 | 1021.0 |
| 20260502191605 | 7 | 116 | 4.8 | 9.7 | 0.00 | 0.00 | 0.00 | 78 | 1021.1 |
| 20260502191504 | 7 | 119 | 6.4 | 9.7 | 0.00 | 0.00 | 0.00 | 78 | 1021.1 |
| 20260502191405 | 7 | 124 | 6.4 | 9.7 | 0.00 | 0.00 | 0.00 | 78 | 1021.1 |
| 20260502191304 | 7 | 125 | 6.4 | 9.7 | 0.00 | 0.00 | 0.00 | 78 | 1021.0 |
| 20260502191005 | 7 | 135 | 8.0 | 9.7 | 0.00 | 0.00 | 0.00 | 78 | 1021.0 |
| 20260502190804 | 7 | 137 | 8.0 | 9.7 | 0.00 | 0.00 | 0.00 | 78 | 1020.9 |
| 20260502190704 | 7 | 140 | 8.0 | 9.7 | 0.00 | 0.00 | 0.00 | 79 | 1021.0 |
| 20260502190604 | 7 | 139 | 8.0 | 9.7 | 0.00 | 0.00 | 0.00 | 78 | 1020.8 |
| 20260502190505 | 7 | 139 | 8.0 | 11.3 | 0.00 | 0.00 | 0.00 | 78 | 1020.9 |
| 20260502190404 | 7 | 138 | 8.0 | 11.3 | 0.00 | 0.00 | 0.00 | 78 | 1020.7 |
| 20260502190305 | 7 | 139 | 8.0 | 11.3 | 0.00 | 0.00 | 0.00 | 78 | 1020.8 |
| 20260502190204 | 7 | 138 | 8.0 | 11.3 | 0.00 | 0.00 | 0.00 | 79 | 1020.9 |
| 20260502190104 | 7 | 136 | 9.7 | 11.3 | 0.00 | 0.00 | 0.00 | 78 | 1021.0 |
| 20260502190005 | 7 | 134 | 8.0 | 11.3 | 0.00 | 0.00 | 0.00 | 78 | 1020.8 |
| 20260502185904 | 7 | 134 | 8.0 | 11.3 | 0.00 | 0.00 | 0.00 | 79 | 1020.7 |
| 20260502185804 | 7 | 134 | 8.0 | 11.3 | 0.00 | 0.00 | 0.00 | 79 | 1020.8 |
| 20260502185704 | 7 | 131 | 8.0 | 11.3 | 0.00 | 0.00 | 0.00 | 79 | 1020.8 |
| 20260502185604 | 7 | 131 | 8.0 | 11.3 | 0.00 | 0.00 | 0.00 | 78 | 1021.0 |
| 20260502185404 | 7 | 127 | 6.4 | 9.7 | 0.00 | 0.00 | 0.00 | 79 | 1021.0 |
| 20260502185305 | 7 | 127 | 6.4 | 9.7 | 0.00 | 0.00 | 0.00 | 79 | 1021.0 |
| 20260502185205 | 7 | 127 | 6.4 | 9.7 | 0.00 | 0.00 | 0.00 | 79 | 1020.7 |
| 20260502185105 | 7 | 125 | 6.4 | 6.4 | 0.00 | 0.00 | 0.00 | 80 | 1020.8 |
| 20260502184904 | 7 | 130 | 6.4 | 6.4 | 0.00 | 0.00 | 0.00 | 80 | 1021.0 |
| 20260502184804 | 7 | 131 | 6.4 | 6.4 | 0.00 | 0.00 | 0.00 | 80 | 1020.7 |
| 20260502184704 | 7 | 132 | 6.4 | 6.4 | 0.00 | 0.00 | 0.00 | 80 | 1020.6 |
| 20260502184604 | 7 | 131 | 6.4 | 6.4 | 0.00 | 0.00 | 0.00 | 80 | 1020.7 |
| 20260502184304 | 7 | 135 | 6.4 | 11.3 | 0.00 | 0.00 | 0.00 | 80 | 1020.8 |
| 20260502184205 | 7 | 135 | 8.0 | 11.3 | 0.00 | 0.00 | 0.00 | 80 | 1020.8 |
| 20260502184005 | 7 | 133 | 8.0 | 11.3 | 0.00 | 0.00 | 0.00 | 80 | 1020.8 |
| 20260502183904 | 7 | 136 | 8.0 | 11.3 | 0.00 | 0.00 | 0.00 | 80 | 1020.6 |
| 20260502183804 | 7 | 135 | 8.0 | 11.3 | 0.00 | 0.00 | 0.00 | 79 | 1020.7 |
| 20260502183604 | 7 | 135 | 8.0 | 11.3 | 0.00 | 0.00 | 0.00 | 79 | 1020.7 |
| 20260502183505 | 7 | 135 | 8.0 | 11.3 | 0.00 | 0.00 | 0.00 | 79 | 1020.5 |
| 20260502183304 | 8 | 135 | 6.4 | 9.7 | 0.00 | 0.00 | 0.00 | 79 | 1020.5 |
| 20260502183205 | 8 | 139 | 6.4 | 9.7 | 0.00 | 0.00 | 0.00 | 78 | 1020.5 |
| 20260502183104 | 8 | 144 | 6.4 | 9.7 | 0.00 | 0.00 | 0.00 | 78 | 1020.6 |
| 20260502183005 | 8 | 148 | 6.4 | 9.7 | 0.00 | 0.00 | 0.00 | 78 | 1020.5 |
| 20260502182704 | 8 | 149 | 6.4 | 9.7 | 0.00 | 0.00 | 0.00 | 80 | 1020.6 |
| 20260502182604 | 8 | 149 | 6.4 | 9.7 | 0.00 | 0.00 | 0.00 | 80 | 1020.6 |
| 20260502182505 | 8 | 149 | 6.4 | 9.7 | 0.00 | 0.00 | 0.00 | 80 | 1020.5 |
| 20260502182404 | 8 | 145 | 6.4 | 9.7 | 0.00 | 0.00 | 0.00 | 80 | 1020.5 |
| 20260502182305 | 8 | 147 | 6.4 | 9.7 | 0.00 | 0.00 | 0.00 | 79 | 1020.4 |
| 20260502182205 | 8 | 142 | 6.4 | 6.4 | 0.00 | 0.00 | 0.00 | 79 | 1020.5 |
| 20260502182104 | 8 | 141 | 6.4 | 6.4 | 0.00 | 0.00 | 0.00 | 79 | 1020.6 |
| 20260502182005 | 8 | 140 | 6.4 | 6.4 | 0.00 | 0.00 | 0.00 | 80 | 1020.5 |
| 20260502181904 | 8 | 137 | 6.4 | 6.4 | 0.00 | 0.00 | 0.00 | 79 | 1020.7 |
| 20260502181804 | 8 | 133 | 6.4 | 6.4 | 0.00 | 0.00 | 0.00 | 78 | 1020.5 |
| 20260502181704 | 8 | 133 | 6.4 | 9.7 | 0.00 | 0.00 | 0.00 | 79 | 1020.4 |
| 20260502181504 | 8 | 128 | 6.4 | 9.7 | 0.00 | 0.00 | 0.00 | 78 | 1020.2 |
| 20260502181404 | 8 | 137 | 8.0 | 9.7 | 0.00 | 0.00 | 0.00 | 78 | 1020.5 |
| 20260502181304 | 8 | 141 | 8.0 | 9.7 | 0.00 | 0.00 | 0.00 | 78 | 1020.5 |
| 20260502181205 | 8 | 147 | 8.0 | 9.7 | 0.00 | 0.00 | 0.00 | 77 | 1020.6 |
| 20260502181105 | 8 | 150 | 8.0 | 9.7 | 0.00 | 0.00 | 0.00 | 77 | 1020.7 |
| 20260502181005 | 8 | 155 | 9.7 | 9.7 | 0.00 | 0.00 | 0.00 | 76 | 1020.7 |
| 20260502180904 | 8 | 156 | 9.7 | 9.7 | 0.00 | 0.00 | 0.00 | 75 | 1020.5 |
| 20260502180804 | 8 | 152 | 9.7 | 9.7 | 0.00 | 0.00 | 0.00 | 75 | 1020.6 |
| 20260502180704 | 8 | 151 | 9.7 | 9.7 | 0.00 | 0.00 | 0.00 | 76 | 1020.5 |
| 20260502180604 | 8 | 152 | 9.7 | 9.7 | 0.00 | 0.00 | 0.00 | 75 | 1020.5 |
| 20260502180505 | 8 | 153 | 9.7 | 9.7 | 0.00 | 0.00 | 0.00 | 77 | 1020.6 |
| 20260502180404 | 8 | 145 | 9.7 | 9.7 | 0.00 | 0.00 | 0.00 | 77 | 1020.7 |
| 20260502180305 | 8 | 137 | 9.7 | 9.7 | 0.00 | 0.00 | 0.00 | 77 | 1020.3 |
| 20260502180204 | 8 | 129 | 9.7 | 11.3 | 0.00 | 0.00 | 0.00 | 77 | 1020.5 |
| 20260502180104 | 8 | 126 | 9.7 | 11.3 | 0.00 | 0.00 | 0.00 | 77 | 1020.6 |
| 20260502170505 | 10 | 146 | 8.0 | 11.3 | 0.00 | 0.00 | 0.00 | 71 | 1020.3 |
| 20260502170405 | 10 | 159 | 8.0 | 11.3 | 0.00 | 0.00 | 0.00 | 72 | 1020.3 |
| 20260502170204 | 10 | 161 | 8.0 | 11.3 | 0.00 | 0.00 | 0.00 | 72 | 1020.4 |
| 20260502170104 | 10 | 161 | 8.0 | 11.3 | 0.00 | 0.00 | 0.00 | 72 | 1020.4 |
| 20260502164305 | 11 | 98 | 6.4 | 9.7 | 0.00 | 0.00 | 0.00 | 70 | 1020.4 |
| 20260502163904 | 11 | 104 | 6.4 | 9.7 | 0.00 | 0.00 | 0.00 | 69 | 1020.2 |
| 20260502163804 | 11 | 97 | 6.4 | 9.7 | 0.00 | 0.00 | 0.00 | 69 | 1020.7 |
| 20260502163704 | 11 | 98 | 6.4 | 9.7 | 0.00 | 0.00 | 0.00 | 69 | 1020.5 |
| 20260502163604 | 11 | 105 | 6.4 | 9.7 | 0.00 | 0.00 | 0.00 | 68 | 1020.5 |
| 20260502163505 | 11 | 94 | 6.4 | 9.7 | 0.00 | 0.00 | 0.00 | 68 | 1020.5 |
| 20260502163404 | 11 | 86 | 6.4 | 11.3 | 0.00 | 0.00 | 0.00 | 68 | 1020.4 |
| 20260502163304 | 11 | 95 | 6.4 | 11.3 | 0.00 | 0.00 | 0.00 | 68 | 1020.4 |
| 20260502163204 | 11 | 100 | 6.4 | 11.3 | 0.00 | 0.00 | 0.00 | 68 | 1020.4 |
| 20260502163104 | 11 | 102 | 6.4 | 11.3 | 0.00 | 0.00 | 0.00 | 68 | 1020.5 |
| 20260502162904 | 11 | 94 | 8.0 | 11.3 | 0.00 | 0.00 | 0.00 | 69 | 1020.5 |
| 20260502162804 | 11 | 96 | 8.0 | 11.3 | 0.00 | 0.00 | 0.00 | 69 | 1020.4 |
| 20260502162704 | 11 | 86 | 8.0 | 11.3 | 0.00 | 0.00 | 0.00 | 69 | 1020.6 |
| 20260502162605 | 11 | 75 | 8.0 | 11.3 | 0.00 | 0.00 | 0.00 | 68 | 1020.5 |
| 20260502162404 | 11 | 82 | 6.4 | 11.3 | 0.00 | 0.00 | 0.00 | 67 | 1020.5 |
| 20260502162305 | 11 | 78 | 6.4 | 11.3 | 0.00 | 0.00 | 0.00 | 68 | 1020.4 |
| 20260502162204 | 12 | 79 | 6.4 | 11.3 | 0.00 | 0.00 | 0.00 | 66 | 1020.5 |
| 20260502162104 | 12 | 73 | 6.4 | 11.3 | 0.00 | 0.00 | 0.00 | 66 | 1020.5 |
| 20260502162005 | 12 | 71 | 6.4 | 11.3 | 0.00 | 0.00 | 0.00 | 66 | 1020.4 |
| 20260502161904 | 12 | 74 | 6.4 | 11.3 | 0.00 | 0.00 | 0.00 | 65 | 1020.5 |
| 20260502161804 | 12 | 75 | 6.4 | 11.3 | 0.00 | 0.00 | 0.00 | 65 | 1020.5 |
| 20260502161704 | 12 | 74 | 6.4 | 11.3 | 0.00 | 0.00 | 0.00 | 65 | 1020.5 |
| 20260502161604 | 12 | 74 | 6.4 | 11.3 | 0.00 | 0.00 | 0.00 | 65 | 1020.7 |
| 20260502161504 | 12 | 78 | 6.4 | 11.3 | 0.00 | 0.00 | 0.00 | 64 | 1020.5 |
| 20260502161404 | 12 | 77 | 6.4 | 11.3 | 0.00 | 0.00 | 0.00 | 66 | 1020.6 |
| 20260502161304 | 12 | 81 | 8.0 | 11.3 | 0.00 | 0.00 | 0.00 | 65 | 1020.6 |
| 20260502161204 | 12 | 84 | 6.4 | 11.3 | 0.00 | 0.00 | 0.00 | 67 | 1020.7 |
| 20260502161104 | 12 | 87 | 6.4 | 11.3 | 0.00 | 0.00 | 0.00 | 66 | 1020.7 |
| 20260502161005 | 12 | 92 | 6.4 | 11.3 | 0.00 | 0.00 | 0.00 | 65 | 1020.6 |
| 20260502160904 | 12 | 95 | 6.4 | 11.3 | 0.00 | 0.00 | 0.00 | 65 | 1020.6 |
| 20260502160804 | 12 | 101 | 6.4 | 11.3 | 0.00 | 0.00 | 0.00 | 65 | 1020.6 |
| 20260502160704 | 12 | 104 | 6.4 | 11.3 | 0.00 | 0.00 | 0.00 | 66 | 1020.6 |
| 20260502160604 | 12 | 116 | 6.4 | 9.7 | 0.00 | 0.00 | 0.00 | 64 | 1020.8 |
| 20260502160504 | 12 | 115 | 6.4 | 9.7 | 0.00 | 0.00 | 0.00 | 65 | 1020.6 |
| 20260502160404 | 12 | 119 | 6.4 | 9.7 | 0.00 | 0.00 | 0.00 | 64 | 1020.5 |
| 20260502160204 | 12 | 109 | 6.4 | 9.7 | 0.00 | 0.00 | 0.00 | 64 | 1020.5 |
| 20260502160104 | 12 | 110 | 6.4 | 9.7 | 0.00 | 0.00 | 0.00 | 65 | 1020.7 |
| 20260502152204 | 13 | 59 | 6.4 | 9.7 | 0.00 | 0.00 | 0.00 | 63 | 1021.0 |
| 20260502152105 | 13 | 60 | 6.4 | 9.7 | 0.00 | 0.00 | 0.00 | 64 | 1020.8 |
| 20260502152004 | 13 | 60 | 6.4 | 9.7 | 0.00 | 0.00 | 0.00 | 62 | 1020.8 |
| 20260502151804 | 13 | 56 | 6.4 | 9.7 | 0.00 | 0.00 | 0.00 | 64 | 1020.8 |
| 20260502151704 | 13 | 54 | 6.4 | 11.3 | 0.00 | 0.00 | 0.00 | 63 | 1021.0 |
| 20260502151604 | 13 | 56 | 6.4 | 11.3 | 0.00 | 0.00 | 0.00 | 61 | 1020.8 |
| 20260502151505 | 13 | 45 | 6.4 | 11.3 | 0.00 | 0.00 | 0.00 | 60 | 1021.0 |
| 20260502151404 | 13 | 44 | 6.4 | 11.3 | 0.00 | 0.00 | 0.00 | 62 | 1020.9 |
| 20260502151304 | 13 | 53 | 6.4 | 11.3 | 0.00 | 0.00 | 0.00 | 62 | 1021.0 |
| 20260502151205 | 13 | 61 | 8.0 | 11.3 | 0.00 | 0.00 | 0.00 | 63 | 1020.9 |
| 20260502151004 | 13 | 69 | 6.4 | 11.3 | 0.00 | 0.00 | 0.00 | 64 | 1020.9 |
| 20260502150504 | 13 | 102 | 6.4 | 11.3 | 0.00 | 0.00 | 0.00 | 62 | 1021.0 |
| 20260502150404 | 13 | 100 | 6.4 | 11.3 | 0.00 | 0.00 | 0.00 | 60 | 1021.0 |
| 20260502150304 | 13 | 99 | 8.0 | 11.3 | 0.00 | 0.00 | 0.00 | 60 | 1020.8 |
| 20260502150204 | 13 | 102 | 8.0 | 9.7 | 0.00 | 0.00 | 0.00 | 63 | 1020.9 |
| 20260502140105 | 14 | 29 | 6.4 | 11.3 | 0.00 | 0.00 | 0.00 | 58 | 1021.2 |
| 20260502130705 | 14 | 344 | 8.0 | 14.5 | 0.00 | 0.00 | 0.00 | 56 | 1021.7 |
| 20260502130604 | 14 | 346 | 8.0 | 14.5 | 0.00 | 0.00 | 0.00 | 61 | 1021.9 |
| 20260502130505 | 14 | 347 | 8.0 | 14.5 | 0.00 | 0.00 | 0.00 | 59 | 1021.9 |
| 20260502130304 | 14 | 339 | 8.0 | 9.7 | 0.00 | 0.00 | 0.00 | 60 | 1021.7 |
| 20260502130204 | 14 | 334 | 8.0 | 9.7 | 0.00 | 0.00 | 0.00 | 58 | 1021.8 |
| 20260502130104 | 14 | 334 | 8.0 | 9.7 | 0.00 | 0.00 | 0.00 | 58 | 1021.8 |
| 20260502123604 | 12 | 13 | 8.0 | 12.9 | 0.00 | 0.00 | 0.00 | 64 | 1021.9 |
| 20260502123504 | 12 | 7 | 8.0 | 12.9 | 0.00 | 0.00 | 0.00 | 60 | 1021.9 |
| 20260502123404 | 14 | 359 | 8.0 | 12.9 | 0.00 | 0.00 | 0.00 | 57 | 1021.9 |
| 20260502123304 | 14 | 352 | 8.0 | 12.9 | 0.00 | 0.00 | 0.00 | 58 | 1022.0 |
| 20260502123204 | 14 | 354 | 8.0 | 12.9 | 0.00 | 0.00 | 0.00 | 60 | 1022.0 |
| 20260502123104 | 14 | 9 | 8.0 | 12.9 | 0.00 | 0.00 | 0.00 | 58 | 1022.0 |
| 20260502123005 | 13 | 17 | 8.0 | 12.9 | 0.00 | 0.00 | 0.00 | 62 | 1022.0 |
| 20260502122905 | 13 | 17 | 8.0 | 12.9 | 0.00 | 0.00 | 0.00 | 64 | 1022.0 |
| 20260502122804 | 13 | 10 | 8.0 | 12.9 | 0.00 | 0.00 | 0.00 | 60 | 1021.8 |
| 20260502122704 | 13 | 13 | 6.4 | 12.9 | 0.00 | 0.00 | 0.00 | 58 | 1022.0 |
| 20260502122604 | 13 | 24 | 6.4 | 11.3 | 0.00 | 0.00 | 0.00 | 59 | 1021.8 |
| 20260502122505 | 13 | 23 | 8.0 | 11.3 | 0.00 | 0.00 | 0.00 | 63 | 1021.9 |
| 20260502122404 | 13 | 24 | 8.0 | 11.3 | 0.00 | 0.00 | 0.00 | 62 | 1022.0 |
| 20260502122204 | 13 | 17 | 8.0 | 11.3 | 0.00 | 0.00 | 0.00 | 63 | 1022.0 |
| 20260502122104 | 13 | 3 | 8.0 | 9.7 | 0.00 | 0.00 | 0.00 | 63 | 1022.1 |
| 20260502122004 | 13 | 353 | 8.0 | 12.9 | 0.00 | 0.00 | 0.00 | 62 | 1022.2 |
| 20260502121904 | 13 | 350 | 8.0 | 17.7 | 0.00 | 0.00 | 0.00 | 62 | 1021.8 |
| 20260502121804 | 13 | 357 | 8.0 | 17.7 | 0.00 | 0.00 | 0.00 | 63 | 1022.3 |
| 20260502121704 | 13 | 2 | 8.0 | 17.7 | 0.00 | 0.00 | 0.00 | 62 | 1022.2 |
| 20260502121604 | 13 | 358 | 8.0 | 17.7 | 0.00 | 0.00 | 0.00 | 65 | 1022.0 |
| 20260502121505 | 13 | 1 | 8.0 | 17.7 | 0.00 | 0.00 | 0.00 | 69 | 1022.1 |
| 20260502121404 | 13 | 348 | 8.0 | 17.7 | 0.00 | 0.00 | 0.00 | 63 | 1022.2 |
| 20260502121304 | 13 | 339 | 8.0 | 17.7 | 0.00 | 0.00 | 0.00 | 66 | 1022.1 |
| 20260502121204 | 13 | 336 | 8.0 | 17.7 | 0.00 | 0.00 | 0.00 | 66 | 1022.2 |
| 20260502121105 | 13 | 336 | 8.0 | 17.7 | 0.00 | 0.00 | 0.00 | 65 | 1022.1 |
| 20260502121005 | 13 | 332 | 8.0 | 17.7 | 0.00 | 0.00 | 0.00 | 66 | 1022.1 |
| 20260502120904 | 13 | 330 | 8.0 | 9.7 | 0.00 | 0.00 | 0.00 | 64 | 1022.2 |
| 20260502120804 | 13 | 331 | 8.0 | 9.7 | 0.00 | 0.00 | 0.00 | 66 | 1022.2 |
| 20260502120704 | 13 | 325 | 8.0 | 9.7 | 0.00 | 0.00 | 0.00 | 69 | 1022.0 |
| 20260502120604 | 13 | 329 | 8.0 | 11.3 | 0.00 | 0.00 | 0.00 | 66 | 1022.2 |
| 20260502120404 | 13 | 341 | 8.0 | 11.3 | 0.00 | 0.00 | 0.00 | 62 | 1022.3 |
| 20260502120203 | 13 | 351 | 8.0 | 11.3 | 0.00 | 0.00 | 0.00 | 62 | 1022.3 |
| 20260502120104 | 13 | 358 | 8.0 | 11.3 | 0.00 | 0.00 | 0.00 | 62 | 1022.0 |
| 20260502115904 | 13 | 9 | 8.0 | 12.9 | 0.00 | 0.00 | 0.00 | 63 | 1022.2 |
| 20260502115804 | 13 | 358 | 9.7 | 12.9 | 0.00 | 0.00 | 0.00 | 63 | 1022.2 |
| 20260502115604 | 13 | 2 | 9.7 | 12.9 | 0.00 | 0.00 | 0.00 | 60 | 1022.4 |
| 20260502115505 | 13 | 353 | 8.0 | 12.9 | 0.00 | 0.00 | 0.00 | 60 | 1022.3 |
| 20260502115404 | 13 | 356 | 8.0 | 12.9 | 0.00 | 0.00 | 0.00 | 57 | 1022.3 |
| 20260502115306 | 13 | 1 | 8.0 | 12.9 | 0.00 | 0.00 | 0.00 | 59 | 1022.2 |
| 20260502115004 | 13 | 2 | 8.0 | 12.9 | 0.00 | 0.00 | 0.00 | 58 | 1022.3 |
| 20260502114904 | 13 | 17 | 8.0 | 12.9 | 0.00 | 0.00 | 0.00 | 56 | 1022.3 |
| 20260502114804 | 13 | 30 | 6.4 | 9.7 | 0.00 | 0.00 | 0.00 | 63 | 1022.2 |
| 20260502114604 | 13 | 41 | 6.4 | 9.7 | 0.00 | 0.00 | 0.00 | 56 | 1022.3 |
| 20260502114204 | 12 | 42 | 8.0 | 9.7 | 0.00 | 0.00 | 0.00 | 53 | 1022.4 |
| 20260502114105 | 13 | 43 | 8.0 | 9.7 | 0.00 | 0.00 | 0.00 | 56 | 1022.5 |
| 20260502114004 | 12 | 50 | 8.0 | 9.7 | 0.00 | 0.00 | 0.00 | 61 | 1022.3 |
| 20260502113904 | 12 | 54 | 8.0 | 9.7 | 0.00 | 0.00 | 0.00 | 56 | 1022.3 |
| 20260502113804 | 12 | 62 | 8.0 | 9.7 | 0.00 | 0.00 | 0.00 | 59 | 1022.2 |
| 20260502113704 | 12 | 54 | 8.0 | 9.7 | 0.00 | 0.00 | 0.00 | 62 | 1022.6 |
| 20260502113604 | 12 | 52 | 8.0 | 9.7 | 0.00 | 0.00 | 0.00 | 62 | 1022.3 |
| 20260502113507 | 12 | 62 | 8.0 | 9.7 | 0.00 | 0.00 | 0.00 | 61 | 1022.4 |
| 20260502113404 | 12 | 65 | 8.0 | 9.7 | 0.00 | 0.00 | 0.00 | 62 | 1022.5 |
| 20260502113304 | 12 | 62 | 8.0 | 9.7 | 0.00 | 0.00 | 0.00 | 59 | 1022.4 |
| 20260502113204 | 12 | 57 | 8.0 | 11.3 | 0.00 | 0.00 | 0.00 | 63 | 1022.3 |
| 20260502113104 | 12 | 58 | 8.0 | 11.3 | 0.00 | 0.00 | 0.00 | 56 | 1022.5 |
| 20260502113004 | 12 | 52 | 8.0 | 11.3 | 0.00 | 0.00 | 0.00 | 66 | 1022.5 |
| 20260502112904 | 12 | 54 | 8.0 | 11.3 | 0.00 | 0.00 | 0.00 | 63 | 1022.5 |
| 20260502112803 | 12 | 55 | 8.0 | 11.3 | 0.00 | 0.00 | 0.00 | 58 | 1022.4 |
| 20260502112704 | 12 | 56 | 8.0 | 11.3 | 0.00 | 0.00 | 0.00 | 63 | 1022.3 |
| 20260502112604 | 12 | 59 | 8.0 | 11.3 | 0.00 | 0.00 | 0.00 | 53 | 1022.7 |
| 20260502112505 | 12 | 55 | 6.4 | 11.3 | 0.00 | 0.00 | 0.00 | 56 | 1022.5 |
| 20260502112405 | 12 | 64 | 6.4 | 11.3 | 0.00 | 0.00 | 0.00 | 61 | 1022.5 |
| 20260502112306 | 12 | 66 | 6.4 | 11.3 | 0.00 | 0.00 | 0.00 | 64 | 1022.6 |
| 20260502112205 | 13 | 63 | 6.4 | 11.3 | 0.00 | 0.00 | 0.00 | 64 | 1022.7 |
| 20260502112104 | 13 | 64 | 6.4 | 11.3 | 0.00 | 0.00 | 0.00 | 64 | 1022.4 |
| 20260502112005 | 13 | 70 | 8.0 | 11.3 | 0.00 | 0.00 | 0.00 | 62 | 1022.6 |
| 20260502111904 | 13 | 61 | 8.0 | 11.3 | 0.00 | 0.00 | 0.00 | 63 | 1022.5 |
| 20260502111804 | 12 | 59 | 8.0 | 11.3 | 0.00 | 0.00 | 0.00 | 69 | 1022.5 |
| 20260502111704 | 11 | 59 | 8.0 | 11.3 | 0.00 | 0.00 | 0.00 | 65 | 1022.4 |
| 20260502111604 | 11 | 56 | 9.7 | 11.3 | 0.00 | 0.00 | 0.00 | 71 | 1022.4 |
| 20260502111505 | 11 | 53 | 9.7 | 11.3 | 0.00 | 0.00 | 0.00 | 67 | 1022.6 |
| 20260502111404 | 11 | 44 | 9.7 | 11.3 | 0.00 | 0.00 | 0.00 | 66 | 1022.6 |
| 20260502111304 | 11 | 47 | 9.7 | 11.3 | 0.00 | 0.00 | 0.00 | 68 | 1022.6 |
| 20260502111204 | 11 | 52 | 9.7 | 11.3 | 0.00 | 0.00 | 0.00 | 68 | 1022.5 |
| 20260502111104 | 11 | 53 | 9.7 | 11.3 | 0.00 | 0.00 | 0.00 | 69 | 1022.5 |
| 20260502111004 | 11 | 47 | 9.7 | 11.3 | 0.00 | 0.00 | 0.00 | 71 | 1022.8 |
| 20260502110904 | 11 | 52 | 9.7 | 11.3 | 0.00 | 0.00 | 0.00 | 69 | 1022.6 |
| 20260502110804 | 11 | 56 | 9.7 | 11.3 | 0.00 | 0.00 | 0.00 | 72 | 1022.6 |
| 20260502110704 | 11 | 58 | 9.7 | 11.3 | 0.00 | 0.00 | 0.00 | 72 | 1022.7 |
| 20260502110604 | 11 | 60 | 9.7 | 11.3 | 0.00 | 0.00 | 0.00 | 72 | 1022.6 |
| 20260502110505 | 11 | 61 | 8.0 | 11.3 | 0.00 | 0.00 | 0.00 | 72 | 1022.5 |
| 20260502110404 | 11 | 72 | 8.0 | 11.3 | 0.00 | 0.00 | 0.00 | 67 | 1022.8 |
| 20260502110304 | 11 | 77 | 8.0 | 12.9 | 0.00 | 0.00 | 0.00 | 69 | 1022.6 |
| 20260502110204 | 11 | 76 | 8.0 | 14.5 | 0.00 | 0.00 | 0.00 | 72 | 1022.5 |
| 20260502110004 | 11 | 81 | 8.0 | 14.5 | 0.00 | 0.00 | 0.00 | 72 | 1022.6 |
| 20260502105804 | 11 | 68 | 9.7 | 17.7 | 0.00 | 0.00 | 0.00 | 67 | 1022.7 |
| 20260502105704 | 11 | 64 | 9.7 | 17.7 | 0.00 | 0.00 | 0.00 | 67 | 1022.8 |
| 20260502105604 | 11 | 61 | 9.7 | 17.7 | 0.00 | 0.00 | 0.00 | 73 | 1022.6 |
| 20260502105505 | 11 | 62 | 9.7 | 17.7 | 0.00 | 0.00 | 0.00 | 73 | 1022.7 |
| 20260502105404 | 11 | 52 | 9.7 | 17.7 | 0.00 | 0.00 | 0.00 | 68 | 1022.7 |
| 20260502105306 | 11 | 44 | 9.7 | 17.7 | 0.00 | 0.00 | 0.00 | 72 | 1022.7 |
| 20260502105204 | 11 | 43 | 8.0 | 17.7 | 0.00 | 0.00 | 0.00 | 70 | 1022.8 |
| 20260502105104 | 11 | 43 | 8.0 | 17.7 | 0.00 | 0.00 | 0.00 | 76 | 1022.7 |
| 20260502105004 | 11 | 36 | 8.0 | 17.7 | 0.00 | 0.00 | 0.00 | 70 | 1022.6 |
| 20260502104904 | 12 | 27 | 8.0 | 17.7 | 0.00 | 0.00 | 0.00 | 69 | 1022.7 |
| 20260502104704 | 12 | 23 | 6.4 | 9.7 | 0.00 | 0.00 | 0.00 | 67 | 1022.8 |
| 20260502104604 | 12 | 20 | 6.4 | 12.9 | 0.00 | 0.00 | 0.00 | 68 | 1022.6 |
| 20260502104505 | 11 | 25 | 8.0 | 12.9 | 0.00 | 0.00 | 0.00 | 71 | 1022.7 |
| 20260502104304 | 11 | 32 | 6.4 | 12.9 | 0.00 | 0.00 | 0.00 | 67 | 1022.9 |
| 20260502104204 | 12 | 25 | 8.0 | 12.9 | 0.00 | 0.00 | 0.00 | 62 | 1022.8 |
| 20260502104103 | 12 | 37 | 8.0 | 12.9 | 0.00 | 0.00 | 0.00 | 67 | 1022.8 |
| 20260502104004 | 12 | 43 | 8.0 | 12.9 | 0.00 | 0.00 | 0.00 | 71 | 1022.8 |
| 20260502103904 | 12 | 46 | 8.0 | 12.9 | 0.00 | 0.00 | 0.00 | 72 | 1022.7 |
| 20260502103804 | 12 | 40 | 8.0 | 12.9 | 0.00 | 0.00 | 0.00 | 70 | 1022.7 |
| 20260502103704 | 12 | 42 | 6.4 | 12.9 | 0.00 | 0.00 | 0.00 | 73 | 1022.7 |
| 20260502103604 | 12 | 50 | 6.4 | 12.9 | 0.00 | 0.00 | 0.00 | 71 | 1022.9 |
| 20260502103505 | 12 | 56 | 6.4 | 11.3 | 0.00 | 0.00 | 0.00 | 70 | 1022.8 |
| 20260502103404 | 12 | 55 | 6.4 | 11.3 | 0.00 | 0.00 | 0.00 | 67 | 1022.9 |
| 20260502103304 | 12 | 51 | 8.0 | 11.3 | 0.00 | 0.00 | 0.00 | 65 | 1022.8 |
| 20260502103204 | 12 | 51 | 8.0 | 11.3 | 0.00 | 0.00 | 0.00 | 64 | 1022.9 |
| 20260502103104 | 12 | 46 | 6.4 | 9.7 | 0.00 | 0.00 | 0.00 | 70 | 1022.8 |
| 20260502103005 | 12 | 37 | 6.4 | 9.7 | 0.00 | 0.00 | 0.00 | 68 | 1022.9 |
| 20260502102904 | 12 | 36 | 6.4 | 9.7 | 0.00 | 0.00 | 0.00 | 68 | 1022.7 |
| 20260502102804 | 11 | 32 | 8.0 | 12.9 | 0.00 | 0.00 | 0.00 | 67 | 1022.7 |
| 20260502102704 | 11 | 26 | 8.0 | 12.9 | 0.00 | 0.00 | 0.00 | 73 | 1022.6 |
| 20260502102605 | 11 | 23 | 8.0 | 12.9 | 0.00 | 0.00 | 0.00 | 65 | 1022.7 |
| 20260502102504 | 11 | 21 | 8.0 | 12.9 | 0.00 | 0.00 | 0.00 | 63 | 1022.8 |
| 20260502102404 | 11 | 14 | 9.7 | 12.9 | 0.00 | 0.00 | 0.00 | 65 | 1022.9 |
| 20260502102204 | 11 | 2 | 9.7 | 12.9 | 0.00 | 0.00 | 0.00 | 71 | 1022.8 |
| 20260502102104 | 11 | 1 | 9.7 | 12.9 | 0.00 | 0.00 | 0.00 | 70 | 1022.8 |
| 20260502101904 | 11 | 357 | 9.7 | 12.9 | 0.00 | 0.00 | 0.00 | 66 | 1022.9 |
| 20260502101804 | 11 | 1 | 9.7 | 17.7 | 0.00 | 0.00 | 0.00 | 73 | 1022.8 |
| 20260502101704 | 11 | 3 | 9.7 | 17.7 | 0.00 | 0.00 | 0.00 | 77 | 1022.8 |
| 20260502101604 | 11 | 354 | 9.7 | 17.7 | 0.00 | 0.00 | 0.00 | 71 | 1022.7 |
| 20260502101504 | 11 | 348 | 9.7 | 17.7 | 0.00 | 0.00 | 0.00 | 76 | 1022.9 |
| 20260502101405 | 11 | 348 | 9.7 | 17.7 | 0.00 | 0.00 | 0.00 | 73 | 1022.9 |
| 20260502101304 | 11 | 349 | 9.7 | 17.7 | 0.00 | 0.00 | 0.00 | 72 | 1022.6 |
| 20260502101104 | 11 | 349 | 9.7 | 17.7 | 0.00 | 0.00 | 0.00 | 72 | 1022.8 |
| 20260502101005 | 11 | 347 | 9.7 | 17.7 | 0.00 | 0.00 | 0.00 | 74 | 1022.8 |
| 20260502100904 | 11 | 347 | 9.7 | 17.7 | 0.00 | 0.00 | 0.00 | 76 | 1022.7 |
| 20260502100804 | 11 | 345 | 9.7 | 17.7 | 0.00 | 0.00 | 0.00 | 67 | 1023.0 |
| 20260502100604 | 11 | 347 | 8.0 | 11.3 | 0.00 | 0.00 | 0.00 | 70 | 1022.9 |
| 20260502100504 | 11 | 349 | 8.0 | 11.3 | 0.00 | 0.00 | 0.00 | 70 | 1022.7 |
| 20260502100404 | 11 | 353 | 6.4 | 11.3 | 0.00 | 0.00 | 0.00 | 68 | 1022.9 |
| 20260502100304 | 11 | 359 | 6.4 | 11.3 | 0.00 | 0.00 | 0.00 | 66 | 1022.6 |
| 20260502100204 | 11 | 4 | 6.4 | 11.3 | 0.00 | 0.00 | 0.00 | 67 | 1022.9 |
| 20260502100104 | 11 | 6 | 6.4 | 11.3 | 0.00 | 0.00 | 0.00 | 71 | 1022.9 |
| 20260502091504 | 9 | 324 | 6.4 | 9.7 | 0.00 | 0.00 | 0.00 | 81 | 1023.1 |
| 20260502091304 | 8 | 322 | 6.4 | 9.7 | 0.00 | 0.00 | 0.00 | 81 | 1023.1 |
| 20260502091204 | 8 | 323 | 6.4 | 9.7 | 0.00 | 0.00 | 0.00 | 82 | 1023.1 |
| 20260502091104 | 8 | 323 | 8.0 | 12.9 | 0.00 | 0.00 | 0.00 | 81 | 1023.2 |
| 20260502091005 | 8 | 322 | 8.0 | 12.9 | 0.00 | 0.00 | 0.00 | 84 | 1023.1 |
| 20260502090904 | 8 | 325 | 8.0 | 12.9 | 0.00 | 0.00 | 0.00 | 81 | 1023.0 |
| 20260502090803 | 9 | 325 | 8.0 | 12.9 | 0.00 | 0.00 | 0.00 | 82 | 1023.0 |
| 20260502090704 | 9 | 325 | 8.0 | 12.9 | 0.00 | 0.00 | 0.00 | 82 | 1023.1 |
| 20260502090604 | 9 | 325 | 8.0 | 12.9 | 0.00 | 0.00 | 0.00 | 81 | 1023.1 |
| 20260502090404 | 9 | 327 | 8.0 | 12.9 | 0.00 | 0.00 | 0.00 | 81 | 1022.9 |
| 20260502090304 | 9 | 329 | 8.0 | 12.9 | 0.00 | 0.00 | 0.00 | 83 | 1022.9 |
| 20260502090204 | 9 | 329 | 8.0 | 12.9 | 0.00 | 0.00 | 0.00 | 79 | 1023.3 |
| 20260502090104 | 9 | 329 | 8.0 | 12.9 | 0.00 | 0.00 | 0.00 | 81 | 1023.1 |
| 20260502080104 | 8 | 322 | 4.8 | 6.4 | 0.00 | 0.00 | 0.00 | 85 | 1023.2 |